FIN1 EFHK-KLAX

Flight info

Callsign FIN1
Flight time 12h 42m
Altitude 34000
Route TEVRU Y75 NEPIX GOMAV OLOLI 75N020E 80N010E 82N000E PELRI 84N080W 83N090W 81N100W 76N110W 70N115W 65N117W 60N118W YQU PARQE YDC LKV SHIMR Q9 REBRG IRNMN IRNMN2
Aircraft A359/H-SDE2E3GHIJ3J4J5LM1ORWXY/LB1D1

Departure

Time 2026-04-23 14:12
Airport Helsinki Vantaa Airport (EFHK)

Arrival

Time 2026-04-24 02:54
Airport Los Angeles International Airport (KLAX)
Time Latitude Longitude Altitude Speed Heading
2026-04-23 13:50 60.31346 24.96345 173 ft 0 kts 47°
2026-04-23 14:00 60.31356 24.96369 173 ft 5 kts 47°
2026-04-23 14:00 60.31362 24.96382 173 ft 0 kts 47°
2026-04-23 14:01 60.31362 24.96380 173 ft 2 kts 47°
2026-04-23 14:02 60.31349 24.96353 173 ft 3 kts 47°
2026-04-23 14:02 60.31336 24.96325 173 ft 3 kts 47°
2026-04-23 14:02 60.31324 24.96297 173 ft 3 kts 47°
2026-04-23 14:02 60.31310 24.96273 173 ft 3 kts 14°
2026-04-23 14:03 60.31291 24.96270 173 ft 3 kts 336°
2026-04-23 14:03 60.31278 24.96285 173 ft 0 kts 305°
2026-04-23 14:05 60.31279 24.96283 173 ft 2 kts 305°
2026-04-23 14:05 60.31297 24.96219 173 ft 8 kts 288°
2026-04-23 14:05 60.31269 24.96079 173 ft 15 kts 231°
2026-04-23 14:06 60.31228 24.95937 173 ft 10 kts 262°
2026-04-23 14:06 60.31232 24.95800 173 ft 10 kts 264°
2026-04-23 14:06 60.31198 24.95680 173 ft 10 kts 232°
2026-04-23 14:06 60.31171 24.95554 172 ft 10 kts 276°
2026-04-23 14:07 60.31211 24.95440 172 ft 10 kts 315°
2026-04-23 14:07 60.31324 24.95220 172 ft 12 kts 316°
2026-04-23 14:07 60.31387 24.95103 173 ft 13 kts 315°
2026-04-23 14:08 60.31441 24.94973 174 ft 10 kts 292°
2026-04-23 14:08 60.31410 24.94818 171 ft 17 kts 231°
2026-04-23 14:08 60.31315 24.94605 166 ft 22 kts 228°
2026-04-23 14:08 60.31207 24.94372 165 ft 23 kts 227°
2026-04-23 14:09 60.31095 24.94133 166 ft 24 kts 231°
2026-04-23 14:09 60.30989 24.93891 165 ft 23 kts 227°
2026-04-23 14:09 60.30884 24.93659 165 ft 23 kts 228°
2026-04-23 14:09 60.30819 24.93474 163 ft 10 kts 270°
2026-04-23 14:10 60.30863 24.93385 164 ft 8 kts 331°
2026-04-23 14:10 60.30902 24.93344 166 ft 4 kts 333°
2026-04-23 14:10 60.30909 24.93337 167 ft 0 kts 333°
2026-04-23 14:10 60.30911 24.93335 167 ft 2 kts 332°
2026-04-23 14:11 60.30961 24.93313 168 ft 13 kts
2026-04-23 14:11 60.31090 24.93547 165 ft 49 kts 47°
2026-04-23 14:11 60.31458 24.94359 168 ft 106 kts 48°
2026-04-23 14:11 60.32068 24.95703 179 ft 153 kts 47°
2026-04-23 14:12 60.33100 24.98038 763 ft 164 kts 44°
2026-04-23 14:12 60.33602 24.99176 1225 ft 165 kts 43°
2026-04-23 14:12 60.34408 25.00909 1634 ft 176 kts 41°
2026-04-23 14:12 60.35303 25.02749 1876 ft 192 kts 41°
2026-04-23 14:13 60.36280 25.04788 2082 ft 213 kts 44°
2026-04-23 14:13 60.37319 25.07115 2339 ft 233 kts 44°
2026-04-23 14:13 60.38428 25.09617 2752 ft 243 kts 45°
2026-04-23 14:13 60.39678 25.11912 3347 ft 243 kts 28°
2026-04-23 14:14 60.41274 25.12866 4006 ft 241 kts
2026-04-23 14:14 60.42951 25.12995 4697 ft 242 kts 359°
2026-04-23 14:14 60.44642 25.13016 5382 ft 243 kts
2026-04-23 14:14 60.46329 25.13067 6101 ft 243 kts
2026-04-23 14:15 60.48018 25.13188 6737 ft 243 kts
2026-04-23 14:15 60.49712 25.13250 7345 ft 245 kts 357°
2026-04-23 14:15 60.51373 25.12498 8010 ft 246 kts 340°
2026-04-23 14:15 60.52937 25.11059 8628 ft 248 kts 335°
2026-04-23 14:16 60.54495 25.09504 9261 ft 250 kts 335°
2026-04-23 14:16 60.56052 25.07956 9942 ft 249 kts 335°
2026-04-23 14:16 60.57638 25.06398 10343 ft 259 kts 336°
2026-04-23 14:16 60.59304 25.04774 10603 ft 272 kts 336°
2026-04-23 14:17 60.61054 25.03074 10850 ft 286 kts 336°
2026-04-23 14:17 60.62888 25.01292 11086 ft 298 kts 336°
2026-04-23 14:17 60.64797 24.99437 11347 ft 310 kts 336°
2026-04-23 14:17 60.66742 24.97543 11611 ft 320 kts 336°
2026-04-23 14:18 60.68803 24.95533 12043 ft 325 kts 336°
2026-04-23 14:18 60.70849 24.93534 12560 ft 326 kts 337°
2026-04-23 14:18 60.72870 24.91556 13084 ft 328 kts 337°
2026-04-23 14:18 60.74930 24.89540 13614 ft 329 kts 337°
2026-04-23 14:19 60.76995 24.87515 14070 ft 330 kts 337°
2026-04-23 14:19 60.79075 24.85480 14497 ft 332 kts 338°
2026-04-23 14:19 60.81225 24.83786 14923 ft 331 kts 346°
2026-04-23 14:19 60.83499 24.83060 15386 ft 332 kts 358°
2026-04-23 14:20 60.85808 24.83174 15867 ft 333 kts
2026-04-23 14:20 60.88118 24.83600 16311 ft 334 kts
2026-04-23 14:20 60.90433 24.84177 16738 ft 336 kts
2026-04-23 14:20 60.92759 24.84808 17148 ft 338 kts
2026-04-23 14:21 60.95100 24.85442 17561 ft 340 kts
2026-04-23 14:21 60.97449 24.86056 17943 ft 341 kts
2026-04-23 14:21 60.99818 24.86652 18249 ft 345 kts
2026-04-23 14:21 61.02211 24.87234 18554 ft 347 kts
2026-04-23 14:22 61.04611 24.87809 18936 ft 348 kts
2026-04-23 14:22 61.07019 24.88381 19318 ft 348 kts
2026-04-23 14:22 61.09429 24.88954 19670 ft 350 kts
2026-04-23 14:22 61.11849 24.89531 20023 ft 351 kts
2026-04-23 14:23 61.14278 24.90112 20433 ft 351 kts
2026-04-23 14:23 61.16703 24.90695 20867 ft 351 kts
2026-04-23 14:23 61.19132 24.91279 21225 ft 352 kts
2026-04-23 14:23 61.21540 24.91859 21556 ft 354 kts
2026-04-23 14:24 61.24019 24.92461 21911 ft 355 kts
2026-04-23 14:24 61.26476 24.93057 22262 ft 356 kts
2026-04-23 14:24 61.28939 24.93651 22611 ft 357 kts
2026-04-23 14:24 61.31384 24.94242 22939 ft 359 kts
2026-04-23 14:25 61.33898 24.94850 23304 ft 360 kts
2026-04-23 14:25 61.36359 24.95447 23614 ft 361 kts
2026-04-23 14:25 61.38856 24.96055 23910 ft 362 kts
2026-04-23 14:25 61.41364 24.96667 24226 ft 363 kts
2026-04-23 14:26 61.43869 24.97280 24537 ft 363 kts
2026-04-23 14:26 61.46378 24.97895 24911 ft 363 kts
2026-04-23 14:26 61.48886 24.98511 25251 ft 363 kts
2026-04-23 14:26 61.51394 24.99127 25559 ft 364 kts
2026-04-23 14:27 61.53907 24.99745 25884 ft 364 kts
2026-04-23 14:27 61.56427 25.00365 26209 ft 365 kts
2026-04-23 14:27 61.58950 25.00987 26539 ft 366 kts
2026-04-23 14:27 61.61483 25.01436 26839 ft 365 kts
2026-04-23 14:28 61.64025 25.01632 27148 ft 366 kts
2026-04-23 14:28 61.66576 25.01774 27464 ft 367 kts 360°
2026-04-23 14:28 61.69130 25.01884 27774 ft 368 kts 360°
2026-04-23 14:28 61.71690 25.01977 28092 ft 369 kts 360°
2026-04-23 14:29 61.74259 25.02065 28397 ft 369 kts 360°
2026-04-23 14:29 61.76832 25.02154 28757 ft 370 kts 359°
2026-04-23 14:29 61.79396 25.02245 29172 ft 368 kts 359°
2026-04-23 14:29 61.81959 25.02338 29384 ft 369 kts 359°
2026-04-23 14:30 61.87165 25.02529 29588 ft 378 kts 359°
2026-04-23 14:30 61.89791 25.02629 29916 ft 378 kts 359°
2026-04-23 14:30 61.92423 25.02730 30138 ft 379 kts 359°
2026-04-23 14:31 61.95062 25.02831 30311 ft 381 kts 359°
2026-04-23 14:31 61.97719 25.02932 30456 ft 383 kts 359°
2026-04-23 14:31 62.00349 25.03032 30605 ft 385 kts 359°
2026-04-23 14:31 62.03033 25.03135 30772 ft 386 kts 359°
2026-04-23 14:32 62.05725 25.03239 30942 ft 388 kts 359°
2026-04-23 14:32 62.08421 25.03344 31172 ft 388 kts 359°
2026-04-23 14:32 62.11113 25.03450 31495 ft 386 kts 359°
2026-04-23 14:32 62.13797 25.03555 31720 ft 386 kts 359°
2026-04-23 14:33 62.16490 25.03660 31895 ft 387 kts 359°
2026-04-23 14:33 62.19181 25.03770 32105 ft 387 kts 359°
2026-04-23 14:33 62.21880 25.03874 32285 ft 388 kts 359°
2026-04-23 14:33 62.24578 25.03975 32479 ft 388 kts 359°
2026-04-23 14:34 62.27278 25.04076 32666 ft 388 kts 359°
2026-04-23 14:34 62.29979 25.04177 32866 ft 388 kts 359°
2026-04-23 14:34 62.32682 25.04280 33045 ft 389 kts 359°
2026-04-23 14:34 62.35386 25.04383 33223 ft 389 kts 359°
2026-04-23 14:35 62.38097 25.04487 33397 ft 389 kts 359°
2026-04-23 14:35 62.40805 25.04592 33566 ft 390 kts 359°
2026-04-23 14:35 62.43519 25.04698 33738 ft 390 kts 359°
2026-04-23 14:35 62.46235 25.04805 33851 ft 392 kts 359°
2026-04-23 14:36 62.51726 25.05018 33873 ft 396 kts 359°
2026-04-23 14:36 62.57223 25.05235 33863 ft 395 kts 359°
2026-04-23 14:37 62.62703 25.05452 33868 ft 394 kts 359°
2026-04-23 14:37 62.68177 25.05670 33868 ft 393 kts 359°
2026-04-23 14:38 62.73653 25.05885 33887 ft 393 kts 359°
2026-04-23 14:38 62.79120 25.06092 33868 ft 393 kts 359°
2026-04-23 14:39 62.84584 25.06308 33866 ft 392 kts 359°
2026-04-23 14:39 62.90044 25.06522 33864 ft 392 kts 359°
2026-04-23 14:40 62.95467 25.06738 33864 ft 392 kts 359°
2026-04-23 14:40 63.00927 25.06959 33866 ft 392 kts 359°
2026-04-23 14:41 63.06384 25.07180 33863 ft 392 kts 359°
2026-04-23 14:41 63.11843 25.07402 33864 ft 392 kts 358°
2026-04-23 14:42 63.17307 25.07625 33865 ft 392 kts 358°
2026-04-23 14:42 63.22765 25.07848 33861 ft 392 kts 358°
2026-04-23 14:43 63.28226 25.08074 33863 ft 392 kts 358°
2026-04-23 14:43 63.33677 25.08305 33865 ft 392 kts 358°
2026-04-23 14:44 63.39123 25.08523 33862 ft 391 kts 358°
2026-04-23 14:44 63.44570 25.08740 33860 ft 391 kts 358°
2026-04-23 14:45 63.50011 25.08961 33861 ft 391 kts 358°
2026-04-23 14:45 63.55449 25.09183 33855 ft 391 kts 358°
2026-04-23 14:46 63.60882 25.09407 33860 ft 391 kts 358°
2026-04-23 14:46 63.66315 25.09632 33866 ft 391 kts 358°
2026-04-23 14:47 63.71752 25.09859 33857 ft 390 kts 358°
2026-04-23 14:47 63.77186 25.10086 33869 ft 391 kts 358°
2026-04-23 14:48 63.82630 25.10313 33853 ft 391 kts 358°
2026-04-23 14:48 63.88039 25.10538 33853 ft 391 kts 358°
2026-04-23 14:49 63.93482 25.10767 33855 ft 391 kts 358°
2026-04-23 14:49 63.98928 25.10996 33852 ft 391 kts 358°
2026-04-23 14:50 64.04373 25.11227 33797 ft 391 kts 358°
2026-04-23 14:50 64.09801 25.11458 33879 ft 390 kts 357°
2026-04-23 14:51 64.15228 25.11690 33849 ft 390 kts 357°
2026-04-23 14:51 64.20659 25.11921 33854 ft 390 kts 357°
2026-04-23 14:52 64.26091 25.12153 33847 ft 390 kts 357°
2026-04-23 14:52 64.31524 25.12388 33848 ft 391 kts 357°
2026-04-23 14:53 64.36957 25.12623 33843 ft 390 kts 357°
2026-04-23 14:53 64.42389 25.12859 33890 ft 390 kts 357°
2026-04-23 14:54 64.47831 25.13005 33842 ft 393 kts 356°
2026-04-23 14:54 64.53270 25.12959 33846 ft 393 kts 356°
2026-04-23 14:55 64.58740 25.12913 33845 ft 393 kts 356°
2026-04-23 14:55 64.64212 25.12899 33836 ft 393 kts 356°
2026-04-23 14:56 64.69683 25.12902 33840 ft 393 kts 356°
2026-04-23 14:56 64.75158 25.12906 33842 ft 393 kts 356°
2026-04-23 14:57 64.80636 25.12909 33810 ft 395 kts 356°
2026-04-23 14:57 64.86129 25.12912 33829 ft 394 kts 356°
2026-04-23 14:58 64.91600 25.12916 33827 ft 393 kts 356°
2026-04-23 14:58 64.97073 25.12917 33828 ft 393 kts 356°
2026-04-23 14:59 65.02546 25.12919 33825 ft 393 kts 356°
2026-04-23 14:59 65.08015 25.12921 33818 ft 393 kts 356°
2026-04-23 15:00 65.13489 25.12927 33835 ft 394 kts 355°
2026-04-23 15:00 65.18987 25.12926 33815 ft 396 kts 355°
2026-04-23 15:01 65.23562 25.12900 33812 ft 396 kts 355°
2026-04-23 15:01 65.29073 25.12864 33812 ft 396 kts 355°
2026-04-23 15:02 65.34580 25.12836 33810 ft 396 kts 355°
2026-04-23 15:02 65.40091 25.12811 33804 ft 396 kts 355°
2026-04-23 15:03 65.45598 25.12794 33802 ft 396 kts 355°
2026-04-23 15:03 65.51122 25.12756 33799 ft 399 kts 355°
2026-04-23 15:04 65.56687 25.12719 33797 ft 400 kts 355°
2026-04-23 15:04 65.62215 25.12690 33797 ft 400 kts 355°
2026-04-23 15:05 65.67785 25.12661 33792 ft 400 kts 355°
2026-04-23 15:05 65.73353 25.12632 33796 ft 400 kts 355°
2026-04-23 15:06 65.78913 25.12601 33793 ft 400 kts 355°
2026-04-23 15:06 65.84485 25.12571 33793 ft 400 kts 355°
2026-04-23 15:07 65.90051 25.12540 33782 ft 400 kts 355°
2026-04-23 15:07 65.95619 25.12509 33778 ft 400 kts 355°
2026-04-23 15:08 66.01189 25.12477 33776 ft 400 kts 355°
2026-04-23 15:09 66.08020 25.12417 33774 ft 399 kts 354°
2026-04-23 15:09 66.13578 25.10535 33770 ft 395 kts 345°
2026-04-23 15:10 66.18930 25.07349 33767 ft 398 kts 344°
2026-04-23 15:10 66.24325 25.03897 33769 ft 401 kts 343°
2026-04-23 15:11 66.29652 25.00445 33768 ft 397 kts 343°
2026-04-23 15:11 66.34998 24.96985 33760 ft 397 kts 343°
2026-04-23 15:12 66.40340 24.93526 33763 ft 397 kts 343°
2026-04-23 15:12 66.45683 24.90054 33768 ft 397 kts 343°
2026-04-23 15:13 66.51025 24.86567 33759 ft 397 kts 343°
2026-04-23 15:13 66.56365 24.83065 33762 ft 397 kts 343°
2026-04-23 15:14 66.61731 24.79528 33764 ft 401 kts 343°
2026-04-23 15:14 66.67147 24.75945 33760 ft 402 kts 343°
2026-04-23 15:15 66.72559 24.72349 33723 ft 402 kts 343°
2026-04-23 15:15 66.77938 24.68761 33762 ft 398 kts 343°
2026-04-23 15:16 66.83284 24.65174 33755 ft 397 kts 343°
2026-04-23 15:16 66.88626 24.61572 33753 ft 397 kts 342°
2026-04-23 15:17 66.93972 24.57953 33758 ft 398 kts 342°
2026-04-23 15:17 66.99323 24.54315 33765 ft 400 kts 342°
2026-04-23 15:18 67.04704 24.50635 33752 ft 405 kts 342°
2026-04-23 15:18 67.10148 24.46900 33752 ft 405 kts 342°
2026-04-23 15:19 67.15627 24.43125 33747 ft 405 kts 342°
2026-04-23 15:19 67.21025 24.39386 33746 ft 405 kts 342°
2026-04-23 15:20 67.26446 24.35617 33741 ft 400 kts 342°
2026-04-23 15:20 67.31798 24.31878 33735 ft 397 kts 342°
2026-04-23 15:21 67.37129 24.28131 33813 ft 397 kts 342°
2026-04-23 15:21 67.42484 24.24349 33737 ft 400 kts 342°
2026-04-23 15:22 67.47866 24.20531 33732 ft 401 kts 342°
2026-04-23 15:22 67.53247 24.16700 33730 ft 401 kts 342°
2026-04-23 15:23 67.58624 24.12853 33732 ft 401 kts 342°
2026-04-23 15:23 67.64000 24.08988 33720 ft 400 kts 342°
2026-04-23 15:24 67.69372 24.05107 33723 ft 400 kts 342°
2026-04-23 15:24 67.74739 24.01213 33686 ft 399 kts 342°
2026-04-23 15:25 67.80049 23.97343 33724 ft 395 kts 342°
2026-04-23 15:25 67.85383 23.93429 33717 ft 399 kts 342°
2026-04-23 15:26 67.90738 23.89484 33717 ft 399 kts 342°
2026-04-23 15:26 67.96096 23.85522 33708 ft 400 kts 342°
2026-04-23 15:27 68.01454 23.81541 33707 ft 400 kts 341°
2026-04-23 15:27 68.06808 23.77542 33711 ft 400 kts 341°
2026-04-23 15:28 68.12162 23.73523 33712 ft 399 kts 341°
2026-04-23 15:28 68.17513 23.69487 33711 ft 400 kts 341°
2026-04-23 15:29 68.22903 23.65399 33711 ft 407 kts 341°
2026-04-23 15:29 68.28389 23.61217 33716 ft 410 kts 341°
2026-04-23 15:30 68.33821 23.57067 33719 ft 408 kts 341°
2026-04-23 15:30 68.39278 23.52870 33718 ft 408 kts 341°
2026-04-23 15:31 68.44737 23.48648 33714 ft 408 kts 341°
2026-04-23 15:31 68.50196 23.44407 33725 ft 408 kts 341°
2026-04-23 15:32 68.55656 23.40143 33704 ft 408 kts 341°
2026-04-23 15:32 68.61123 23.35851 33723 ft 411 kts 341°
2026-04-23 15:33 68.66733 23.32047 33728 ft 420 kts 348°
2026-04-23 15:33 68.72579 23.30686 33735 ft 423 kts 352°
2026-04-23 15:34 68.78455 23.29822 33732 ft 423 kts 353°
2026-04-23 15:34 68.84326 23.29061 33736 ft 421 kts 353°
2026-04-23 15:35 68.90148 23.28292 33723 ft 418 kts 353°
2026-04-23 15:35 68.95955 23.27493 33729 ft 418 kts 352°
2026-04-23 15:36 69.01796 23.26668 33739 ft 424 kts 353°
2026-04-23 15:36 69.07709 23.25834 33737 ft 426 kts 353°
2026-04-23 15:37 69.13626 23.25005 33737 ft 426 kts 353°
2026-04-23 15:37 69.18542 23.24311 33734 ft 426 kts 353°
2026-04-23 15:38 69.25456 23.23328 33735 ft 426 kts 353°
2026-04-23 15:38 69.31369 23.22483 33744 ft 426 kts 353°
2026-04-23 15:39 69.37304 23.21626 33746 ft 430 kts 353°
2026-04-23 15:39 69.43315 23.20748 33742 ft 434 kts 353°
2026-04-23 15:40 69.49343 23.19872 33747 ft 434 kts 353°
2026-04-23 15:40 69.55374 23.18993 33741 ft 434 kts 353°
2026-04-23 15:41 69.61385 23.18112 33754 ft 430 kts 352°
2026-04-23 15:41 69.67334 23.17238 33756 ft 427 kts 352°
2026-04-23 15:42 69.73262 23.16352 33763 ft 427 kts 352°
2026-04-23 15:42 69.79194 23.15459 33767 ft 427 kts 352°
2026-04-23 15:43 69.85086 23.14570 33768 ft 427 kts 352°
2026-04-23 15:43 69.91016 23.13671 33774 ft 427 kts 352°
2026-04-23 15:44 69.96953 23.12761 33770 ft 427 kts 352°
2026-04-23 15:44 70.02885 23.11855 33772 ft 427 kts 352°
2026-04-23 15:45 70.08824 23.10943 33781 ft 428 kts 352°
2026-04-23 15:45 70.14806 23.10011 33772 ft 433 kts 352°
2026-04-23 15:46 70.20827 23.09073 33776 ft 433 kts 352°
2026-04-23 15:46 70.26846 23.08134 33777 ft 433 kts 352°
2026-04-23 15:47 70.32868 23.07184 33775 ft 433 kts 352°
2026-04-23 15:47 70.38861 23.06243 33788 ft 429 kts 352°
2026-04-23 15:48 70.44791 23.05310 33772 ft 426 kts 352°
2026-04-23 15:48 70.50735 23.04343 33790 ft 430 kts 352°
2026-04-23 15:49 70.55713 23.03530 33777 ft 431 kts 352°
2026-04-23 15:49 70.61707 23.02553 33788 ft 431 kts 352°
2026-04-23 15:50 70.68675 23.01411 33778 ft 431 kts 352°
2026-04-23 15:50 70.74665 23.00433 33782 ft 431 kts 352°
2026-04-23 15:51 70.79685 22.99606 33780 ft 431 kts 352°
2026-04-23 15:51 70.85679 22.98608 33785 ft 433 kts 352°
2026-04-23 15:52 70.91690 22.97595 33779 ft 437 kts 352°
2026-04-23 15:52 70.97810 22.96569 33779 ft 438 kts 352°
2026-04-23 15:53 71.03852 22.95552 33771 ft 438 kts 352°
2026-04-23 15:53 71.09934 22.94485 33769 ft 437 kts 351°
2026-04-23 15:54 71.15895 22.91604 33745 ft 433 kts 345°
2026-04-23 15:54 71.21790 22.88131 33798 ft 430 kts 345°
2026-04-23 15:55 71.27690 22.84501 33747 ft 435 kts 345°
2026-04-23 15:55 71.33632 22.80819 33752 ft 436 kts 345°
2026-04-23 15:56 71.39577 22.77134 33752 ft 436 kts 345°
2026-04-23 15:56 71.45522 22.73432 33752 ft 436 kts 345°
2026-04-23 15:57 71.51467 22.69706 33758 ft 436 kts 345°
2026-04-23 15:57 71.57411 22.65957 33757 ft 436 kts 345°
2026-04-23 15:58 71.63354 22.62182 33771 ft 436 kts 345°
2026-04-23 15:58 71.69336 22.58355 33747 ft 441 kts 345°
2026-04-23 15:59 71.75358 22.54479 33746 ft 442 kts 345°
2026-04-23 15:59 71.81381 22.50582 33755 ft 442 kts 345°
2026-04-23 16:00 71.87403 22.46660 33767 ft 442 kts 345°
2026-04-23 16:00 71.93419 22.42714 33769 ft 441 kts 345°
2026-04-23 16:01 71.99437 22.38741 33773 ft 441 kts 345°
2026-04-23 16:01 72.05458 22.34737 33779 ft 443 kts 346°
2026-04-23 16:02 72.11478 22.30707 33781 ft 446 kts 346°
2026-04-23 16:02 72.17555 22.26616 33781 ft 446 kts 346°
2026-04-23 16:03 72.23632 22.22498 33782 ft 446 kts 346°
2026-04-23 16:03 72.29707 22.18352 33774 ft 446 kts 345°
2026-04-23 16:04 72.35785 22.14176 33765 ft 446 kts 345°
2026-04-23 16:04 72.41844 22.09985 33788 ft 444 kts 345°
2026-04-23 16:05 72.46869 22.06485 33795 ft 445 kts 345°
2026-04-23 16:05 72.53986 22.01491 33786 ft 448 kts 345°
2026-04-23 16:06 72.60087 21.97182 33794 ft 448 kts 345°
2026-04-23 16:06 72.66185 21.92845 33794 ft 448 kts 345°
2026-04-23 16:07 72.72281 21.88479 33794 ft 448 kts 345°
2026-04-23 16:07 72.78378 21.84081 33785 ft 448 kts 345°
2026-04-23 16:08 72.84431 21.79685 33850 ft 448 kts 345°
2026-04-23 16:08 72.90546 21.75207 33805 ft 452 kts 345°
2026-04-23 16:09 72.96697 21.70675 33762 ft 452 kts 345°
2026-04-23 16:09 73.02840 21.66121 33793 ft 451 kts 345°
2026-04-23 16:10 73.08966 21.61544 33816 ft 451 kts 345°
2026-04-23 16:10 73.15092 21.56931 33800 ft 451 kts 345°
2026-04-23 16:11 73.21216 21.52287 33814 ft 450 kts 345°
2026-04-23 16:11 73.27337 21.47611 33819 ft 451 kts 345°
2026-04-23 16:12 73.33480 21.42884 33801 ft 453 kts 345°
2026-04-23 16:12 73.39633 21.38115 33813 ft 453 kts 345°
2026-04-23 16:13 73.45788 21.33311 33806 ft 453 kts 345°
2026-04-23 16:13 73.55011 21.26043 33807 ft 453 kts 345°
2026-04-23 16:14 73.61159 21.21153 33804 ft 452 kts 345°
2026-04-23 16:14 73.67283 21.16247 33815 ft 450 kts 345°
2026-04-23 16:15 73.73392 21.11314 33814 ft 450 kts 345°
2026-04-23 16:15 73.79496 21.06348 33814 ft 450 kts 345°
2026-04-23 16:16 73.85603 21.01342 33827 ft 450 kts 345°
2026-04-23 16:16 73.91707 20.96301 33830 ft 450 kts 345°
2026-04-23 16:17 73.97812 20.91221 33829 ft 450 kts 345°
2026-04-23 16:17 74.03911 20.86107 33824 ft 450 kts 345°
2026-04-23 16:18 74.10016 20.80947 33840 ft 451 kts 345°
2026-04-23 16:18 74.16147 20.75725 33833 ft 453 kts 345°
2026-04-23 16:19 74.22284 20.70461 33811 ft 453 kts 344°
2026-04-23 16:19 74.28410 20.65167 33829 ft 452 kts 344°
2026-04-23 16:20 74.34524 20.59838 33840 ft 451 kts 344°
2026-04-23 16:20 74.40640 20.54464 33840 ft 451 kts 344°
2026-04-23 16:21 74.46711 20.49089 33834 ft 451 kts 344°
2026-04-23 16:21 74.52826 20.43631 33841 ft 453 kts 344°
2026-04-23 16:22 74.58964 20.38110 33843 ft 454 kts 344°
2026-04-23 16:22 74.65108 20.32540 33844 ft 454 kts 344°
2026-04-23 16:23 74.71249 20.26928 33842 ft 454 kts 344°
2026-04-23 16:23 74.77388 20.21272 33838 ft 454 kts 344°
2026-04-23 16:24 74.83526 20.15571 33840 ft 454 kts 344°
2026-04-23 16:24 74.89655 20.09833 33847 ft 452 kts 344°
2026-04-23 16:25 74.95775 20.04053 33836 ft 454 kts 344°
2026-04-23 16:25 75.01919 19.98118 33852 ft 455 kts 342°
2026-04-23 16:26 75.07922 19.90479 33832 ft 454 kts 339°
2026-04-23 16:26 75.13864 19.82150 33852 ft 454 kts 339°
2026-04-23 16:27 75.19825 19.73959 33854 ft 454 kts 339°
2026-04-23 16:27 75.25801 19.65896 33838 ft 454 kts 340°
2026-04-23 16:28 75.31779 19.57833 33861 ft 454 kts 339°
2026-04-23 16:28 75.37765 19.49687 33856 ft 457 kts 339°
2026-04-23 16:29 75.43779 19.41421 33844 ft 457 kts 339°
2026-04-23 16:29 75.49774 19.33111 33846 ft 455 kts 339°
2026-04-23 16:30 75.55749 19.24753 33875 ft 455 kts 339°
2026-04-23 16:30 75.61682 19.16384 33868 ft 455 kts 339°
2026-04-23 16:31 75.67649 19.07892 33867 ft 455 kts 339°
2026-04-23 16:31 75.73619 18.99324 33851 ft 455 kts 339°
2026-04-23 16:32 75.79589 18.90680 33872 ft 457 kts 339°
2026-04-23 16:32 75.85593 18.81908 33867 ft 459 kts 339°
2026-04-23 16:33 75.91605 18.73051 33867 ft 459 kts 339°
2026-04-23 16:33 75.97613 18.64119 33850 ft 459 kts 339°
2026-04-23 16:34 76.03607 18.55128 33871 ft 457 kts 339°
2026-04-23 16:34 76.09580 18.46088 33870 ft 457 kts 339°
2026-04-23 16:35 76.15550 18.36971 33868 ft 457 kts 339°
2026-04-23 16:35 76.21518 18.27772 33899 ft 458 kts 339°
2026-04-23 16:36 76.27511 18.18451 33890 ft 460 kts 339°
2026-04-23 16:36 76.33508 18.09040 33884 ft 460 kts 339°
2026-04-23 16:37 76.39503 17.99544 33884 ft 460 kts 339°
2026-04-23 16:37 76.45497 17.89962 33893 ft 460 kts 338°
2026-04-23 16:38 76.50474 17.81938 33892 ft 460 kts 338°
2026-04-23 16:38 76.56451 17.72221 33891 ft 458 kts 338°
2026-04-23 16:39 76.62391 17.62472 33922 ft 457 kts 338°
2026-04-23 16:39 76.68350 17.52593 33890 ft 460 kts 338°
2026-04-23 16:40 76.74334 17.42584 33894 ft 461 kts 338°
2026-04-23 16:40 76.80323 17.32473 33883 ft 461 kts 338°
2026-04-23 16:41 76.86307 17.22272 33892 ft 461 kts 338°
2026-04-23 16:41 76.92286 17.11979 33892 ft 461 kts 337°
2026-04-23 16:42 76.98261 17.01592 33890 ft 461 kts 337°
2026-04-23 16:42 77.04228 16.91119 33888 ft 461 kts 337°
2026-04-23 16:43 77.10196 16.80547 33902 ft 461 kts 336°
2026-04-23 16:43 77.16077 16.70027 33896 ft 456 kts 336°
2026-04-23 16:44 77.21970 16.59368 33898 ft 456 kts 336°
2026-04-23 16:44 77.27855 16.48626 33899 ft 456 kts 336°
2026-04-23 16:45 77.33735 16.37791 33898 ft 456 kts 336°
2026-04-23 16:45 77.39609 16.26860 33897 ft 456 kts 336°
2026-04-23 16:46 77.45484 16.15817 33898 ft 456 kts 336°
2026-04-23 16:46 77.51356 16.04666 33909 ft 458 kts 336°
2026-04-23 16:47 77.57279 15.93303 33905 ft 462 kts 336°
2026-04-23 16:47 77.63211 15.81814 33905 ft 462 kts 336°
2026-04-23 16:48 77.69147 15.70195 33904 ft 462 kts 335°
2026-04-23 16:48 77.75071 15.58474 33920 ft 462 kts 335°
2026-04-23 16:49 77.80992 15.46641 33917 ft 462 kts 335°
2026-04-23 16:49 77.86902 15.34707 33911 ft 462 kts 335°
2026-04-23 16:50 77.92813 15.22645 33915 ft 462 kts 335°
2026-04-23 16:50 77.98714 15.10476 33932 ft 462 kts 335°
2026-04-23 16:51 78.04563 14.98278 33923 ft 462 kts 335°
2026-04-23 16:51 78.10495 14.85783 33924 ft 462 kts 335°
2026-04-23 16:52 78.16338 14.73348 33912 ft 462 kts 334°
2026-04-23 16:52 78.22200 14.60734 33941 ft 459 kts 334°
2026-04-23 16:53 78.28036 14.48040 33944 ft 459 kts 334°
2026-04-23 16:53 78.33864 14.35224 33950 ft 459 kts 334°
2026-04-23 16:54 78.39721 14.22200 33952 ft 463 kts 334°
2026-04-23 16:54 78.45593 14.09003 33955 ft 464 kts 334°
2026-04-23 16:55 78.51469 13.95654 33947 ft 463 kts 334°
2026-04-23 16:55 78.57333 13.82181 33947 ft 463 kts 334°
2026-04-23 16:56 78.63184 13.68586 33966 ft 463 kts 334°
2026-04-23 16:56 78.69038 13.54828 33966 ft 463 kts 334°
2026-04-23 16:57 78.74889 13.40923 33963 ft 465 kts 334°
2026-04-23 16:57 78.80752 13.26829 33964 ft 467 kts 334°
2026-04-23 16:58 78.86633 13.12530 33990 ft 467 kts 333°
2026-04-23 16:58 78.92507 12.98082 33990 ft 467 kts 333°
2026-04-23 16:59 78.98374 12.83482 33990 ft 467 kts 333°
2026-04-23 16:59 79.04234 12.68724 34017 ft 467 kts 333°
2026-04-23 17:00 79.10084 12.53819 34019 ft 467 kts 333°
2026-04-23 17:00 79.15929 12.38753 34021 ft 467 kts 333°
2026-04-23 17:01 79.21765 12.23526 34020 ft 468 kts 333°
2026-04-23 17:01 79.27624 12.08058 34026 ft 469 kts 332°
2026-04-23 17:02 79.33459 11.92461 34031 ft 468 kts 332°
2026-04-23 17:02 79.39278 11.76715 34037 ft 467 kts 332°
2026-04-23 17:03 79.45081 11.60819 34041 ft 467 kts 332°
2026-04-23 17:03 79.50841 11.44852 34051 ft 467 kts 332°
2026-04-23 17:04 79.56629 11.28606 34048 ft 467 kts 332°
2026-04-23 17:04 79.62411 11.12172 34056 ft 468 kts 332°
2026-04-23 17:05 79.68214 10.95474 34063 ft 471 kts 332°
2026-04-23 17:05 79.74028 10.78536 34060 ft 471 kts 331°
2026-04-23 17:06 79.79829 10.61417 34048 ft 470 kts 331°
2026-04-23 17:06 79.85596 10.44178 34059 ft 467 kts 330°
2026-04-23 17:07 79.91328 10.26823 34070 ft 467 kts 330°
2026-04-23 17:07 79.97047 10.09285 34069 ft 466 kts 330°
2026-04-23 17:08 80.02722 9.91213 34085 ft 467 kts 327°
2026-04-23 17:08 80.08131 9.70499 34060 ft 465 kts 324°
2026-04-23 17:09 80.13450 9.49102 34082 ft 463 kts 324°
2026-04-23 17:09 80.18775 9.27873 34087 ft 465 kts 325°
2026-04-23 17:10 80.24099 9.06701 34072 ft 466 kts 325°
2026-04-23 17:10 80.29477 8.85130 34086 ft 466 kts 324°
2026-04-23 17:11 80.34810 8.63440 34091 ft 462 kts 324°
2026-04-23 17:11 80.40101 8.41601 34085 ft 464 kts 324°
2026-04-23 17:12 80.45410 8.19381 34117 ft 468 kts 324°
2026-04-23 17:12 80.50731 7.96808 34100 ft 466 kts 324°
2026-04-23 17:13 80.56022 7.74053 34094 ft 464 kts 323°
2026-04-23 17:13 80.61275 7.51140 34096 ft 466 kts 323°
2026-04-23 17:14 80.66543 7.27836 34109 ft 469 kts 323°
2026-04-23 17:14 80.71822 7.04159 34103 ft 467 kts 323°
2026-04-23 17:15 80.77052 6.80372 34103 ft 464 kts 322°
2026-04-23 17:15 80.82247 6.56389 34126 ft 466 kts 322°
2026-04-23 17:16 80.87447 6.32040 34102 ft 467 kts 322°
2026-04-23 17:16 80.92658 6.07290 34120 ft 467 kts 322°
2026-04-23 17:17 80.97827 5.82400 34121 ft 463 kts 321°
2026-04-23 17:17 81.02933 5.57428 34132 ft 465 kts 321°
2026-04-23 17:18 81.10639 5.19031 34116 ft 470 kts 321°
2026-04-23 17:19 81.15765 4.93020 34134 ft 467 kts 321°
2026-04-23 17:19 81.20854 4.66802 34136 ft 465 kts 320°
2026-04-23 17:20 81.25881 4.40518 34158 ft 468 kts 320°
2026-04-23 17:21 81.36056 3.86080 34142 ft 469 kts 320°
2026-04-23 17:21 81.43576 3.44752 34147 ft 464 kts 319°
2026-04-23 17:22 81.51046 3.02707 34159 ft 468 kts 319°
2026-04-23 17:23 81.58529 2.59600 34162 ft 468 kts 319°
2026-04-23 17:24 81.65902 2.16111 34160 ft 462 kts 318°
2026-04-23 17:24 81.73206 1.71950 34165 ft 467 kts 318°
2026-04-23 17:25 81.80509 1.26728 34166 ft 469 kts 317°
2026-04-23 17:26 81.90136 0.65372 34180 ft 462 kts 317°
2026-04-23 17:27 81.97276 0.18509 34174 ft 466 kts 316°
2026-04-23 17:27 82.02098 -0.13305 34191 ft 474 kts 319°
2026-04-23 17:28 82.06342 -0.37974 34200 ft 470 kts 321°
2026-04-23 17:28 82.11483 -0.66866 34189 ft 465 kts 321°
2026-04-23 17:29 82.16557 -0.96403 34203 ft 467 kts 320°
2026-04-23 17:30 82.24127 -1.42290 34187 ft 469 kts 319°
2026-04-23 17:30 82.31562 -1.88711 34186 ft 464 kts 319°
2026-04-23 17:31 82.36514 -2.20291 34188 ft 469 kts 319°
2026-04-23 17:31 82.41474 -2.52464 34205 ft 469 kts 318°
2026-04-23 17:32 82.46395 -2.84946 34207 ft 468 kts 317°
2026-04-23 17:32 82.51255 -3.17605 34202 ft 466 kts 317°
2026-04-23 17:33 82.56127 -3.50959 34199 ft 471 kts 317°
2026-04-23 17:33 82.61023 -3.85085 34223 ft 471 kts 316°
2026-04-23 17:34 82.65818 -4.19112 34220 ft 467 kts 316°
2026-04-23 17:35 82.72972 -4.71069 34212 ft 467 kts 316°
2026-04-23 17:35 82.80121 -5.24495 34236 ft 475 kts 315°
2026-04-23 17:36 82.84870 -5.60824 34227 ft 471 kts 315°
2026-04-23 17:36 82.89540 -5.97244 34228 ft 467 kts 315°
2026-04-23 17:37 82.94200 -6.34304 34242 ft 470 kts 314°
2026-04-23 17:38 83.01197 -6.91313 34241 ft 473 kts 313°
2026-04-23 17:38 83.05808 -7.29848 34243 ft 472 kts 313°
2026-04-23 17:39 83.10356 -7.68590 34271 ft 466 kts 313°
2026-04-23 17:39 83.14894 -8.08033 34262 ft 473 kts 313°
2026-04-23 17:40 83.19439 -8.48357 34258 ft 479 kts 312°
2026-04-23 17:40 83.23962 -8.89337 34254 ft 473 kts 312°
2026-04-23 17:41 83.28395 -9.30341 34272 ft 471 kts 311°
2026-04-23 17:41 83.34989 -9.92961 34263 ft 473 kts 310°
2026-04-23 17:42 83.41537 -10.57156 34268 ft 477 kts 310°
2026-04-23 17:43 83.45891 -11.01019 34283 ft 476 kts 310°
2026-04-23 17:43 83.50187 -11.45254 34283 ft 476 kts 309°
2026-04-23 17:44 83.54420 -11.89821 34281 ft 470 kts 309°
2026-04-23 17:44 83.60703 -12.57872 34296 ft 475 kts 308°
2026-04-23 17:45 83.66926 -13.27582 34294 ft 476 kts 308°
2026-04-23 17:46 83.73062 -13.98751 34299 ft 474 kts 307°
2026-04-23 17:46 83.77102 -14.47033 34306 ft 478 kts 306°
2026-04-23 17:47 83.81087 -14.95792 34305 ft 473 kts 306°
2026-04-23 17:48 83.86981 -15.70138 34305 ft 478 kts 305°
2026-04-23 17:48 83.90860 -16.20564 34314 ft 476 kts 305°
2026-04-23 17:49 83.94718 -16.72002 34317 ft 483 kts 304°
2026-04-23 17:49 83.98520 -17.23988 34312 ft 480 kts 304°
2026-04-23 17:50 84.02262 -17.76533 34317 ft 476 kts 303°
2026-04-23 17:50 84.07799 -18.56788 34329 ft 482 kts 302°
2026-04-23 17:51 84.11419 -19.11050 34325 ft 478 kts 301°
2026-04-23 17:52 84.16740 -19.93532 34348 ft 478 kts 301°
2026-04-23 17:52 84.21940 -20.77517 34344 ft 481 kts 300°
2026-04-23 17:53 84.27063 -21.63719 34339 ft 479 kts 299°
2026-04-23 17:54 84.30379 -22.21648 34350 ft 478 kts 298°
2026-04-23 17:54 84.35263 -23.10297 34349 ft 484 kts 298°
2026-04-23 17:55 84.40035 -24.00645 34346 ft 480 kts 297°
2026-04-23 17:56 84.43098 -24.61347 34363 ft 479 kts 296°
2026-04-23 17:56 84.47608 -25.54052 34354 ft 482 kts 295°
2026-04-23 17:57 84.50518 -26.16482 34360 ft 478 kts 295°
2026-04-23 17:58 84.54791 -27.10960 34376 ft 484 kts 294°
2026-04-23 17:58 84.57578 -27.75568 34373 ft 485 kts 293°
2026-04-23 17:59 84.60283 -28.40811 34370 ft 481 kts 292°
2026-04-23 17:59 84.62904 -29.06278 34378 ft 480 kts 292°
2026-04-23 18:00 84.65471 -29.72692 34382 ft 484 kts 291°
2026-04-23 18:00 84.67967 -30.39824 34385 ft 481 kts 290°
2026-04-23 18:01 84.70374 -31.07103 34379 ft 481 kts 290°
2026-04-23 18:01 84.72715 -31.75265 34390 ft 483 kts 289°
2026-04-23 18:02 84.74608 -32.32459 34388 ft 484 kts 289°
2026-04-23 18:02 84.77190 -33.13921 34383 ft 484 kts 288°
2026-04-23 18:03 84.79314 -33.84088 34401 ft 485 kts 287°
2026-04-23 18:03 84.81367 -34.55175 34403 ft 487 kts 286°
2026-04-23 18:04 84.83333 -35.26556 34392 ft 483 kts 286°
2026-04-23 18:04 84.85213 -35.98311 34395 ft 483 kts 285°
2026-04-23 18:05 84.87005 -36.70251 34397 ft 482 kts 284°
2026-04-23 18:05 84.88724 -37.42904 34397 ft 482 kts 284°
2026-04-23 18:06 84.90349 -38.15553 34401 ft 483 kts 283°
2026-04-23 18:06 84.91912 -38.89689 34398 ft 483 kts 282°
2026-04-23 18:07 84.93368 -39.63088 34415 ft 481 kts 281°
2026-04-23 18:07 84.94742 -40.37161 34417 ft 482 kts 280°
2026-04-23 18:08 84.95833 -40.99805 34410 ft 484 kts 280°
2026-04-23 18:08 84.97258 -41.87548 34425 ft 485 kts 279°
2026-04-23 18:09 84.98389 -42.63423 34415 ft 484 kts 278°
2026-04-23 18:09 84.99431 -43.39504 34419 ft 485 kts 278°
2026-04-23 18:10 85.00388 -44.16093 34416 ft 485 kts 277°
2026-04-23 18:10 85.01250 -44.92618 34432 ft 482 kts 276°
2026-04-23 18:11 85.02019 -45.69219 34424 ft 484 kts 275°
2026-04-23 18:11 85.02704 -46.46301 34430 ft 484 kts 274°
2026-04-23 18:12 85.03301 -47.23692 34419 ft 486 kts 274°
2026-04-23 18:12 85.03809 -48.01635 34420 ft 487 kts 273°
2026-04-23 18:13 85.04224 -48.79626 34424 ft 486 kts 272°
2026-04-23 18:13 85.04547 -49.57756 34428 ft 487 kts 271°
2026-04-23 18:14 85.04747 -50.22788 34423 ft 486 kts 271°
2026-04-23 18:14 85.04922 -51.14112 34447 ft 485 kts 269°
2026-04-23 18:15 85.04968 -51.92151 34438 ft 484 kts 269°
2026-04-23 18:15 85.04925 -52.70236 34427 ft 487 kts 268°
2026-04-23 18:16 85.04791 -53.48796 34428 ft 488 kts 267°
2026-04-23 18:16 85.04564 -54.27225 34421 ft 488 kts 267°
2026-04-23 18:17 85.04121 -55.31527 34418 ft 488 kts 266°
2026-04-23 18:17 85.03678 -56.09718 34436 ft 488 kts 265°
2026-04-23 18:18 85.03048 -57.00392 34430 ft 488 kts 264°
2026-04-23 18:18 85.02519 -57.65540 34430 ft 487 kts 264°
2026-04-23 18:19 85.01799 -58.43374 34429 ft 490 kts 262°
2026-04-23 18:19 85.00986 -59.21255 34433 ft 491 kts 262°
2026-04-23 18:20 84.99969 -59.98139 34432 ft 490 kts 255°
2026-04-23 18:20 84.98067 -60.73008 34433 ft 490 kts 251°
2026-04-23 18:21 84.95910 -61.46648 34441 ft 490 kts 250°
2026-04-23 18:21 84.93651 -62.19498 34441 ft 489 kts 249°
2026-04-23 18:22 84.91325 -62.91762 34441 ft 489 kts 249°
2026-04-23 18:22 84.88928 -63.63356 34457 ft 490 kts 248°
2026-04-23 18:23 84.85180 -64.69748 34451 ft 491 kts 247°
2026-04-23 18:24 84.81254 -65.74666 34463 ft 491 kts 246°
2026-04-23 18:25 84.77162 -66.77889 34461 ft 491 kts 245°
2026-04-23 18:25 84.74339 -67.45800 34463 ft 491 kts 244°
2026-04-23 18:26 84.71443 -68.13032 34467 ft 490 kts 244°
2026-04-23 18:26 84.68481 -68.79414 34473 ft 490 kts 243°
2026-04-23 18:27 84.65449 -69.45029 34470 ft 491 kts 242°
2026-04-23 18:27 84.62336 -70.10153 34482 ft 493 kts 242°
2026-04-23 18:28 84.59148 -70.74666 34476 ft 493 kts 241°
2026-04-23 18:28 84.55889 -71.38449 34477 ft 493 kts 240°
2026-04-23 18:29 84.52569 -72.01403 34489 ft 493 kts 239°
2026-04-23 18:29 84.49181 -72.63607 34484 ft 492 kts 239°
2026-04-23 18:30 84.45758 -73.24616 34484 ft 492 kts 238°
2026-04-23 18:30 84.42251 -73.85202 34499 ft 492 kts 238°
2026-04-23 18:31 84.38693 -74.44874 34491 ft 491 kts 237°
2026-04-23 18:31 84.35056 -75.04087 34489 ft 495 kts 237°
2026-04-23 18:32 84.31345 -75.62757 34504 ft 495 kts 236°
2026-04-23 18:32 84.27580 -76.20626 34494 ft 495 kts 236°
2026-04-23 18:33 84.23759 -76.77751 34493 ft 494 kts 235°
2026-04-23 18:33 84.19878 -77.34105 34511 ft 495 kts 234°
2026-04-23 18:34 84.15944 -77.89679 34518 ft 494 kts 234°
2026-04-23 18:34 84.12997 -78.30365 34508 ft 493 kts 233°
2026-04-23 18:35 84.08976 -78.84586 34721 ft 494 kts 233°
2026-04-23 18:35 84.06943 -79.11464 34867 ft 496 kts 233°
2026-04-23 18:35 84.04883 -79.38332 34985 ft 498 kts 233°
2026-04-23 18:35 84.02812 -79.65021 35247 ft 497 kts 232°
2026-04-23 18:36 84.00739 -79.91382 35549 ft 494 kts 232°
2026-04-23 18:36 83.98663 -80.17515 35800 ft 493 kts 232°
2026-04-23 18:36 83.96603 -80.43608 36046 ft 492 kts 232°
2026-04-23 18:36 83.94549 -80.69588 36245 ft 492 kts 232°
2026-04-23 18:37 83.92489 -80.95408 36461 ft 492 kts 232°
2026-04-23 18:37 83.88312 -81.46730 36525 ft 496 kts 231°
2026-04-23 18:38 83.84065 -81.97430 36533 ft 495 kts 231°
2026-04-23 18:38 83.79775 -82.47263 36531 ft 493 kts 230°
2026-04-23 18:39 83.75478 -82.95991 36531 ft 493 kts 230°
2026-04-23 18:39 83.71101 -83.44448 36529 ft 496 kts 229°
2026-04-23 18:40 83.66659 -83.92465 36539 ft 497 kts 229°
2026-04-23 18:40 83.62169 -84.39881 36543 ft 497 kts 228°
2026-04-23 18:41 83.57636 -84.86595 36550 ft 497 kts 227°
2026-04-23 18:41 83.53061 -85.32662 36533 ft 497 kts 227°
2026-04-23 18:42 83.48448 -85.78060 36545 ft 495 kts 227°
2026-04-23 18:42 83.43812 -86.22690 36543 ft 494 kts 226°
2026-04-23 18:43 83.39142 -86.66618 36561 ft 494 kts 226°
2026-04-23 18:43 83.34430 -87.09952 36545 ft 494 kts 225°
2026-04-23 18:44 83.29684 -87.52653 36550 ft 494 kts 225°
2026-04-23 18:44 83.24900 -87.94776 36551 ft 494 kts 224°
2026-04-23 18:45 83.20087 -88.36275 36552 ft 494 kts 224°
2026-04-23 18:45 83.15269 -88.76935 36582 ft 494 kts 224°
2026-04-23 18:46 83.10399 -89.17175 36566 ft 492 kts 223°
2026-04-23 18:46 83.05510 -89.56725 36564 ft 491 kts 223°
2026-04-23 18:47 83.00585 -89.95744 36587 ft 491 kts 222°
2026-04-23 18:47 82.95476 -90.33033 36573 ft 494 kts 218°
2026-04-23 18:48 82.90107 -90.67852 36573 ft 494 kts 217°
2026-04-23 18:48 82.84715 -91.02205 36586 ft 494 kts 217°
2026-04-23 18:49 82.79332 -91.36398 36576 ft 494 kts 218°
2026-04-23 18:49 82.73941 -91.70231 36578 ft 493 kts 217°
2026-04-23 18:50 82.69463 -91.97900 36588 ft 492 kts 217°
2026-04-23 18:50 82.63142 -92.36203 36591 ft 491 kts 216°
2026-04-23 18:51 82.57708 -92.68413 36580 ft 492 kts 216°
2026-04-23 18:51 82.52250 -93.00160 36596 ft 492 kts 216°
2026-04-23 18:52 82.46744 -93.31610 36590 ft 495 kts 215°
2026-04-23 18:52 82.41198 -93.62674 36586 ft 496 kts 215°
2026-04-23 18:53 82.35631 -93.93296 36599 ft 495 kts 214°
2026-04-23 18:53 82.30063 -94.23394 36599 ft 493 kts 214°
2026-04-23 18:54 82.24484 -94.53014 36584 ft 493 kts 214°
2026-04-23 18:54 82.18882 -94.82214 36586 ft 493 kts 214°
2026-04-23 18:55 82.13257 -95.11000 36588 ft 493 kts 213°
2026-04-23 18:55 82.07620 -95.39356 36588 ft 493 kts 213°
2026-04-23 18:56 82.02919 -95.62637 36591 ft 494 kts 213°
2026-04-23 18:56 81.96246 -95.95085 36589 ft 497 kts 213°
2026-04-23 18:57 81.90502 -96.22496 36599 ft 497 kts 212°
2026-04-23 18:57 81.84745 -96.49503 36594 ft 497 kts 212°
2026-04-23 18:58 81.78966 -96.76168 36592 ft 497 kts 212°
2026-04-23 18:58 81.73176 -97.02439 36603 ft 497 kts 212°
2026-04-23 18:59 81.67366 -97.28341 36602 ft 497 kts 211°
2026-04-23 18:59 81.61582 -97.53702 36594 ft 496 kts 211°
2026-04-23 19:00 81.55742 -97.78895 36610 ft 496 kts 211°
2026-04-23 19:00 81.49847 -98.03907 36608 ft 498 kts 211°
2026-04-23 19:01 81.43959 -98.28482 36595 ft 498 kts 210°
2026-04-23 19:01 81.38094 -98.52561 36602 ft 498 kts 210°
2026-04-23 19:02 81.33137 -98.72618 36602 ft 498 kts 210°
2026-04-23 19:02 81.26243 -99.00085 36595 ft 498 kts 210°
2026-04-23 19:03 81.20295 -99.23378 36603 ft 498 kts 209°
2026-04-23 19:03 81.14338 -99.46328 36607 ft 497 kts 209°
2026-04-23 19:04 81.08380 -99.68915 36603 ft 496 kts 209°
2026-04-23 19:04 81.02415 -99.91185 36598 ft 497 kts 208°
2026-04-23 19:05 80.96375 -100.12821 36605 ft 498 kts 205°
2026-04-23 19:05 80.91216 -100.29008 36611 ft 498 kts 205°
2026-04-23 19:06 80.84966 -100.47862 36613 ft 498 kts 204°
2026-04-23 19:06 80.78726 -100.66729 36600 ft 498 kts 205°
2026-04-23 19:07 80.72496 -100.85547 36610 ft 497 kts 205°
2026-04-23 19:07 80.66275 -101.04152 36607 ft 496 kts 204°
2026-04-23 19:08 80.60052 -101.22474 36601 ft 496 kts 204°
2026-04-23 19:08 80.53819 -101.40539 36607 ft 496 kts 204°
2026-04-23 19:09 80.47579 -101.58347 36607 ft 497 kts 204°
2026-04-23 19:09 80.41302 -101.76023 36616 ft 499 kts 204°
2026-04-23 19:10 80.35000 -101.93513 36605 ft 499 kts 203°
2026-04-23 19:10 80.28697 -102.10755 36605 ft 498 kts 204°
2026-04-23 19:11 80.22399 -102.27742 36610 ft 497 kts 203°
2026-04-23 19:11 80.16144 -102.44377 36602 ft 497 kts 203°
2026-04-23 19:12 80.09834 -102.60929 36600 ft 497 kts 203°
2026-04-23 19:12 80.03518 -102.77263 36613 ft 497 kts 203°
2026-04-23 19:13 79.97154 -102.93495 36610 ft 497 kts 202°
2026-04-23 19:13 79.90866 -103.09319 36620 ft 498 kts 202°
2026-04-23 19:14 79.84512 -103.25085 36605 ft 498 kts 202°
2026-04-23 19:14 79.78161 -103.40645 36608 ft 497 kts 202°
2026-04-23 19:15 79.71804 -103.56003 36613 ft 497 kts 202°
2026-04-23 19:15 79.65441 -103.71169 36608 ft 497 kts 202°
2026-04-23 19:16 79.59071 -103.86156 36605 ft 497 kts 202°
2026-04-23 19:16 79.52690 -104.00972 36608 ft 497 kts 201°
2026-04-23 19:17 79.43115 -104.22839 36603 ft 496 kts 202°
2026-04-23 19:17 79.36743 -104.37156 36605 ft 496 kts 201°
2026-04-23 19:18 79.30352 -104.51331 36605 ft 498 kts 201°
2026-04-23 19:18 79.23927 -104.65407 36598 ft 499 kts 201°
2026-04-23 19:19 79.14276 -104.86213 36605 ft 499 kts 201°
2026-04-23 19:20 79.04610 -105.06658 36610 ft 499 kts 201°
2026-04-23 19:20 78.98180 -105.20046 36603 ft 497 kts 201°
2026-04-23 19:21 78.88578 -105.39732 36603 ft 497 kts 201°
2026-04-23 19:22 78.82142 -105.52726 36604 ft 497 kts 200°
2026-04-23 19:22 78.72465 -105.71968 36598 ft 499 kts 200°
2026-04-23 19:23 78.65982 -105.84662 36602 ft 499 kts 200°
2026-04-23 19:24 78.56251 -106.03430 36599 ft 498 kts 200°
2026-04-23 19:24 78.46522 -106.21863 36597 ft 498 kts 200°
2026-04-23 19:25 78.33536 -106.45959 36602 ft 498 kts 200°
2026-04-23 19:26 78.23784 -106.63685 36597 ft 498 kts 200°
2026-04-23 19:27 78.07537 -106.92541 36597 ft 497 kts 200°
2026-04-23 19:28 77.94531 -107.15053 36598 ft 497 kts 199°
2026-04-23 19:29 77.84768 -107.31619 36599 ft 497 kts 199°
2026-04-23 19:30 77.75040 -107.47851 36600 ft 497 kts 199°
2026-04-23 19:31 77.65255 -107.63909 36605 ft 497 kts 199°
2026-04-23 19:31 77.58718 -107.74489 36598 ft 499 kts 199°
2026-04-23 19:32 77.52152 -107.85000 36600 ft 500 kts 199°
2026-04-23 19:32 77.45576 -107.95412 36600 ft 500 kts 199°
2026-04-23 19:33 77.38994 -108.05721 36598 ft 500 kts 199°
2026-04-23 19:33 77.29119 -108.20979 36602 ft 499 kts 199°
2026-04-23 19:34 77.22540 -108.31006 36600 ft 499 kts 198°
2026-04-23 19:35 77.12663 -108.45863 36601 ft 499 kts 198°
2026-04-23 19:35 77.06076 -108.55639 36602 ft 499 kts 198°
2026-04-23 19:36 76.99483 -108.65321 36602 ft 500 kts 198°
2026-04-23 19:36 76.92872 -108.74929 36603 ft 500 kts 198°
2026-04-23 19:37 76.86257 -108.84443 36603 ft 500 kts 198°
2026-04-23 19:37 76.79648 -108.93850 36602 ft 499 kts 198°
2026-04-23 19:38 76.73081 -109.03101 36602 ft 499 kts 198°
2026-04-23 19:38 76.66469 -109.12321 36599 ft 499 kts 198°
2026-04-23 19:39 76.59849 -109.21459 36603 ft 499 kts 198°
2026-04-23 19:39 76.53229 -109.30500 36602 ft 499 kts 198°
2026-04-23 19:40 76.46558 -109.39521 36608 ft 499 kts 198°
2026-04-23 19:40 76.39972 -109.48340 36602 ft 500 kts 198°
2026-04-23 19:41 76.33329 -109.57146 36602 ft 501 kts 198°
2026-04-23 19:41 76.26674 -109.65877 36603 ft 501 kts 198°
2026-04-23 19:42 76.20023 -109.74517 36610 ft 501 kts 198°
2026-04-23 19:42 76.13366 -109.83080 36607 ft 501 kts 197°
2026-04-23 19:43 76.06706 -109.91564 36605 ft 500 kts 197°
2026-04-23 19:43 76.00045 -109.99966 36606 ft 500 kts 197°
2026-04-23 19:44 75.93369 -110.08073 36607 ft 500 kts 196°
2026-04-23 19:44 75.86670 -110.15859 36600 ft 500 kts 196°
2026-04-23 19:45 75.79956 -110.23606 36611 ft 502 kts 196°
2026-04-23 19:45 75.73233 -110.31341 36608 ft 502 kts 196°
2026-04-23 19:46 75.66504 -110.39030 36604 ft 502 kts 196°
2026-04-23 19:46 75.59778 -110.46645 36605 ft 502 kts 196°
2026-04-23 19:47 75.54184 -110.52922 36606 ft 502 kts 196°
2026-04-23 19:47 75.46322 -110.61658 36607 ft 502 kts 196°
2026-04-23 19:48 75.39590 -110.69062 36607 ft 502 kts 196°
2026-04-23 19:48 75.32859 -110.76399 36607 ft 502 kts 196°
2026-04-23 19:49 75.26167 -110.83624 36606 ft 502 kts 196°
2026-04-23 19:49 75.19413 -110.90850 36610 ft 503 kts 196°
2026-04-23 19:50 75.12654 -110.98012 36611 ft 503 kts 196°
2026-04-23 19:50 75.05889 -111.05117 36613 ft 503 kts 196°
2026-04-23 19:51 74.99127 -111.12151 36612 ft 503 kts 196°
2026-04-23 19:51 74.92362 -111.19127 36613 ft 503 kts 196°
2026-04-23 19:52 74.86734 -111.24881 36615 ft 503 kts 196°
2026-04-23 19:52 74.78820 -111.32902 36613 ft 503 kts 195°
2026-04-23 19:53 74.72051 -111.39695 36616 ft 503 kts 195°
2026-04-23 19:53 74.65284 -111.46426 36614 ft 504 kts 196°
2026-04-23 19:54 74.59641 -111.51993 36612 ft 504 kts 196°
2026-04-23 19:54 74.52852 -111.58636 36615 ft 505 kts 195°
2026-04-23 19:55 74.46058 -111.65225 36611 ft 505 kts 195°
2026-04-23 19:55 74.39258 -111.71761 36616 ft 504 kts 195°
2026-04-23 19:56 74.32463 -111.78236 36615 ft 504 kts 195°
2026-04-23 19:56 74.25671 -111.84651 36618 ft 504 kts 195°
2026-04-23 19:57 74.18878 -111.91014 36617 ft 504 kts 195°
2026-04-23 19:57 74.12086 -111.97319 36616 ft 504 kts 195°
2026-04-23 19:58 74.05283 -112.03584 36618 ft 505 kts 195°
2026-04-23 19:58 73.98475 -112.09797 36619 ft 505 kts 195°
2026-04-23 19:59 73.91654 -112.15967 36619 ft 505 kts 195°
2026-04-23 19:59 73.84844 -112.22076 36624 ft 504 kts 195°
2026-04-23 20:00 73.78033 -112.28135 36623 ft 504 kts 195°
2026-04-23 20:00 73.71268 -112.34104 36627 ft 504 kts 195°
2026-04-23 20:01 73.64456 -112.40063 36626 ft 504 kts 195°
2026-04-23 20:01 73.57644 -112.45973 36625 ft 504 kts 195°
2026-04-23 20:02 73.50828 -112.51837 36602 ft 504 kts 195°
2026-04-23 20:02 73.44002 -112.57666 36625 ft 505 kts 195°
2026-04-23 20:03 73.37161 -112.63454 36627 ft 506 kts 195°
2026-04-23 20:03 73.30316 -112.69198 36629 ft 506 kts 195°
2026-04-23 20:04 73.23470 -112.74896 36626 ft 506 kts 195°
2026-04-23 20:04 73.16622 -112.80550 36629 ft 506 kts 195°
2026-04-23 20:05 73.09771 -112.86162 36630 ft 506 kts 195°
2026-04-23 20:05 73.02927 -112.91721 36635 ft 505 kts 195°
2026-04-23 20:06 72.96088 -112.97233 36635 ft 505 kts 195°
2026-04-23 20:06 72.89297 -113.02667 36636 ft 506 kts 195°
2026-04-23 20:07 72.82436 -113.08112 36638 ft 507 kts 195°
2026-04-23 20:07 72.75565 -113.13516 36637 ft 507 kts 195°
2026-04-23 20:08 72.68695 -113.18878 36634 ft 507 kts 195°
2026-04-23 20:08 72.61825 -113.24198 36637 ft 506 kts 195°
2026-04-23 20:09 72.54958 -113.29474 36637 ft 506 kts 195°
2026-04-23 20:09 72.48090 -113.34713 36638 ft 506 kts 195°
2026-04-23 20:10 72.41230 -113.39903 36640 ft 506 kts 195°
2026-04-23 20:10 72.34358 -113.45063 36641 ft 506 kts 195°
2026-04-23 20:11 72.27487 -113.50179 36638 ft 506 kts 195°
2026-04-23 20:11 72.20619 -113.55254 36639 ft 505 kts 195°
2026-04-23 20:12 72.13757 -113.60289 36640 ft 505 kts 195°
2026-04-23 20:12 72.06900 -113.65282 36643 ft 505 kts 195°
2026-04-23 20:13 72.00040 -113.70239 36642 ft 505 kts 195°
2026-04-23 20:13 71.93180 -113.75158 36643 ft 505 kts 195°
2026-04-23 20:14 71.86314 -113.80045 36643 ft 505 kts 195°
2026-04-23 20:14 71.79451 -113.84892 36641 ft 504 kts 195°
2026-04-23 20:15 71.72595 -113.89700 36641 ft 506 kts 195°
2026-04-23 20:15 71.65712 -113.94491 36647 ft 506 kts 195°
2026-04-23 20:16 71.58829 -113.99246 36639 ft 507 kts 195°
2026-04-23 20:16 71.51984 -114.03941 36640 ft 507 kts 195°
2026-04-23 20:17 71.45094 -114.08631 36648 ft 507 kts 195°
2026-04-23 20:17 71.38206 -114.13284 36639 ft 506 kts 195°
2026-04-23 20:18 71.31332 -114.17895 36651 ft 505 kts 195°
2026-04-23 20:18 71.24459 -114.22473 36636 ft 505 kts 195°
2026-04-23 20:19 71.17583 -114.27020 36628 ft 505 kts 195°
2026-04-23 20:19 71.10694 -114.31546 36646 ft 507 kts 195°
2026-04-23 20:20 71.03786 -114.36048 36643 ft 508 kts 195°
2026-04-23 20:20 70.96878 -114.40516 36642 ft 507 kts 195°
2026-04-23 20:21 70.89978 -114.44948 36649 ft 506 kts 195°
2026-04-23 20:21 70.83084 -114.49346 36645 ft 506 kts 195°
2026-04-23 20:22 70.76182 -114.53719 36653 ft 506 kts 195°
2026-04-23 20:22 70.69285 -114.58057 36653 ft 506 kts 194°
2026-04-23 20:23 70.62381 -114.62369 36654 ft 506 kts 194°
2026-04-23 20:23 70.55484 -114.66647 36658 ft 506 kts 195°
2026-04-23 20:24 70.48622 -114.70874 36659 ft 507 kts 195°
2026-04-23 20:24 70.41714 -114.75100 36661 ft 507 kts 194°
2026-04-23 20:25 70.34801 -114.79299 36660 ft 507 kts 194°
2026-04-23 20:25 70.27891 -114.83468 36662 ft 507 kts 194°
2026-04-23 20:26 70.20977 -114.87611 36661 ft 507 kts 194°
2026-04-23 20:26 70.14066 -114.91723 36666 ft 506 kts 194°
2026-04-23 20:27 70.07123 -114.95826 36663 ft 505 kts 194°
2026-04-23 20:27 70.00275 -114.99847 36658 ft 506 kts 194°
2026-04-23 20:28 69.93331 -115.03570 36665 ft 508 kts 193°
2026-04-23 20:28 69.86346 -115.06872 36667 ft 509 kts 192°
2026-04-23 20:29 69.79360 -115.10170 36666 ft 509 kts 193°
2026-04-23 20:29 69.72385 -115.13517 36666 ft 507 kts 193°
2026-04-23 20:30 69.65424 -115.16870 36678 ft 507 kts 193°
2026-04-23 20:30 69.54985 -115.21863 36673 ft 507 kts 193°
2026-04-23 20:31 69.48023 -115.25161 36667 ft 507 kts 193°
2026-04-23 20:31 69.41060 -115.28433 36675 ft 508 kts 193°
2026-04-23 20:32 69.34081 -115.31696 36678 ft 509 kts 193°
2026-04-23 20:32 69.27096 -115.34941 36677 ft 509 kts 193°
2026-04-23 20:33 69.20106 -115.38167 36684 ft 509 kts 193°
2026-04-23 20:33 69.13119 -115.41369 36683 ft 509 kts 193°
2026-04-23 20:34 69.06133 -115.44551 36685 ft 509 kts 193°
2026-04-23 20:34 68.99186 -115.47694 36670 ft 509 kts 192°
2026-04-23 20:35 68.92160 -115.50851 36686 ft 508 kts 192°
2026-04-23 20:35 68.85235 -115.53944 36657 ft 507 kts 192°
2026-04-23 20:36 68.78248 -115.57042 36685 ft 509 kts 192°
2026-04-23 20:36 68.71249 -115.60133 36688 ft 509 kts 192°
2026-04-23 20:37 68.64253 -115.63200 36688 ft 509 kts 192°
2026-04-23 20:37 68.57258 -115.66246 36683 ft 509 kts 192°
2026-04-23 20:38 68.50267 -115.69270 36688 ft 508 kts 192°
2026-04-23 20:38 68.43287 -115.72271 36688 ft 508 kts 192°
2026-04-23 20:39 68.36307 -115.75254 36686 ft 508 kts 192°
2026-04-23 20:39 68.29325 -115.78220 36685 ft 508 kts 192°
2026-04-23 20:40 68.22338 -115.81166 36684 ft 509 kts 192°
2026-04-23 20:40 68.15330 -115.84108 36688 ft 509 kts 192°
2026-04-23 20:41 68.08329 -115.87027 36690 ft 509 kts 192°
2026-04-23 20:41 68.01331 -115.89928 36689 ft 509 kts 192°
2026-04-23 20:42 67.94327 -115.92812 36687 ft 509 kts 192°
2026-04-23 20:42 67.88509 -115.95195 36689 ft 509 kts 192°
2026-04-23 20:43 67.81506 -115.98047 36684 ft 509 kts 192°
2026-04-23 20:43 67.74509 -116.00879 36683 ft 508 kts 192°
2026-04-23 20:44 67.67515 -116.03692 36664 ft 508 kts 192°
2026-04-23 20:44 67.60506 -116.06497 36680 ft 510 kts 192°
2026-04-23 20:45 67.53480 -116.09290 36668 ft 511 kts 192°
2026-04-23 20:45 67.46452 -116.12067 36667 ft 511 kts 192°
2026-04-23 20:46 67.39426 -116.14827 36666 ft 510 kts 192°
2026-04-23 20:46 67.32409 -116.17565 36664 ft 510 kts 192°
2026-04-23 20:47 67.25391 -116.20290 36661 ft 510 kts 192°
2026-04-23 20:47 67.18379 -116.22996 36662 ft 510 kts 192°
2026-04-23 20:48 67.11368 -116.25685 36629 ft 510 kts 192°
2026-04-23 20:48 67.04333 -116.28370 36650 ft 512 kts 192°
2026-04-23 20:49 66.97289 -116.31040 36656 ft 512 kts 192°
2026-04-23 20:49 66.90252 -116.33692 36650 ft 511 kts 192°
2026-04-23 20:50 66.83217 -116.36328 36637 ft 511 kts 192°
2026-04-23 20:50 66.76181 -116.38949 36636 ft 511 kts 192°
2026-04-23 20:51 66.69140 -116.41558 36637 ft 511 kts 192°
2026-04-23 20:51 66.62108 -116.44147 36622 ft 511 kts 192°
2026-04-23 20:52 66.55077 -116.46721 36628 ft 510 kts 192°
2026-04-23 20:52 66.48057 -116.49278 36625 ft 510 kts 192°
2026-04-23 20:53 66.41082 -116.51805 36624 ft 510 kts 192°
2026-04-23 20:53 66.34058 -116.54333 36618 ft 510 kts 192°
2026-04-23 20:54 66.27035 -116.56848 36614 ft 510 kts 192°
2026-04-23 20:54 66.20014 -116.59348 36617 ft 509 kts 191°
2026-04-23 20:55 66.13003 -116.61829 36608 ft 509 kts 191°
2026-04-23 20:55 66.05996 -116.64295 36608 ft 509 kts 191°
2026-04-23 20:56 65.98986 -116.66750 36582 ft 509 kts 191°
2026-04-23 20:56 65.91963 -116.69196 36602 ft 511 kts 191°
2026-04-23 20:57 65.84915 -116.71636 36597 ft 511 kts 191°
2026-04-23 20:57 65.77875 -116.74058 36607 ft 511 kts 191°
2026-04-23 20:58 65.70837 -116.76466 36589 ft 511 kts 191°
2026-04-23 20:58 65.63806 -116.78861 36598 ft 511 kts 191°
2026-04-23 20:59 65.56767 -116.81245 36591 ft 511 kts 191°
2026-04-23 20:59 65.49728 -116.83616 36596 ft 511 kts 191°
2026-04-23 21:00 65.42693 -116.85972 36595 ft 511 kts 191°
2026-04-23 21:00 65.35642 -116.88323 36596 ft 513 kts 191°
2026-04-23 21:01 65.28564 -116.90669 36586 ft 513 kts 191°
2026-04-23 21:01 65.21489 -116.93000 36589 ft 513 kts 191°
2026-04-23 21:02 65.14410 -116.95319 36589 ft 513 kts 191°
2026-04-23 21:02 65.07340 -116.97625 36585 ft 512 kts 191°
2026-04-23 21:03 65.00326 -116.99899 36584 ft 512 kts 191°
2026-04-23 21:03 64.93251 -117.01861 36580 ft 513 kts 188°
2026-04-23 21:04 64.86143 -117.03405 36585 ft 513 kts 188°
2026-04-23 21:04 64.79025 -117.04963 36578 ft 515 kts 188°
2026-04-23 21:05 64.71889 -117.06593 36573 ft 515 kts 188°
2026-04-23 21:05 64.64759 -117.08244 36573 ft 514 kts 188°
2026-04-23 21:06 64.57642 -117.09888 36572 ft 514 kts 188°
2026-04-23 21:06 64.50523 -117.11521 36567 ft 514 kts 188°
2026-04-23 21:07 64.43401 -117.13144 36571 ft 514 kts 188°
2026-04-23 21:07 64.36284 -117.14758 36561 ft 514 kts 188°
2026-04-23 21:08 64.29183 -117.16359 36568 ft 512 kts 188°
2026-04-23 21:08 64.22088 -117.17953 36562 ft 514 kts 188°
2026-04-23 21:09 64.14960 -117.19545 36524 ft 515 kts 188°
2026-04-23 21:09 64.07865 -117.21117 36517 ft 505 kts 188°
2026-04-23 21:10 64.04405 -117.21876 36521 ft 494 kts 188°
2026-04-23 21:10 64.01007 -117.22621 36521 ft 488 kts 188°
2026-04-23 21:10 63.94277 -117.24103 36551 ft 484 kts 188°
2026-04-23 21:11 63.87577 -117.25576 36560 ft 484 kts 188°
2026-04-23 21:11 63.80916 -117.27031 36562 ft 484 kts 188°
2026-04-23 21:12 63.74215 -117.28484 36556 ft 484 kts 188°
2026-04-23 21:12 63.67509 -117.29930 36541 ft 484 kts 188°
2026-04-23 21:13 63.60778 -117.31379 36551 ft 486 kts 188°
2026-04-23 21:13 63.54047 -117.32815 36552 ft 486 kts 188°
2026-04-23 21:14 63.47324 -117.34244 36551 ft 485 kts 188°
2026-04-23 21:14 63.40596 -117.35668 36551 ft 486 kts 188°
2026-04-23 21:15 63.33871 -117.37085 36549 ft 486 kts 188°
2026-04-23 21:15 63.27143 -117.38497 36547 ft 485 kts 187°
2026-04-23 21:16 63.20432 -117.39897 36554 ft 484 kts 187°
2026-04-23 21:16 63.13735 -117.41288 36554 ft 484 kts 187°
2026-04-23 21:17 63.07019 -117.42677 36554 ft 486 kts 187°
2026-04-23 21:17 63.00278 -117.44066 36554 ft 487 kts 187°
2026-04-23 21:18 62.93528 -117.45449 36551 ft 487 kts 187°
2026-04-23 21:18 62.86788 -117.46823 36556 ft 485 kts 187°
2026-04-23 21:19 62.80067 -117.48186 36557 ft 485 kts 187°
2026-04-23 21:19 62.73392 -117.49535 36560 ft 485 kts 187°
2026-04-23 21:20 62.66668 -117.50888 36562 ft 485 kts 187°
2026-04-23 21:20 62.59950 -117.52233 36559 ft 485 kts 187°
2026-04-23 21:21 62.53231 -117.53573 36558 ft 485 kts 187°
2026-04-23 21:21 62.46499 -117.54909 36555 ft 487 kts 187°
2026-04-23 21:22 62.39751 -117.56242 36558 ft 487 kts 187°
2026-04-23 21:22 62.33002 -117.57569 36550 ft 487 kts 187°
2026-04-23 21:23 62.26251 -117.58890 36553 ft 487 kts 187°
2026-04-23 21:23 62.19503 -117.60206 36542 ft 486 kts 187°
2026-04-23 21:24 62.12772 -117.61512 36540 ft 485 kts 187°
2026-04-23 21:24 62.06051 -117.62809 36544 ft 485 kts 187°
2026-04-23 21:25 61.99331 -117.64101 36528 ft 485 kts 187°
2026-04-23 21:25 61.92590 -117.65392 36543 ft 488 kts 187°
2026-04-23 21:26 61.85869 -117.66673 36545 ft 489 kts 187°
2026-04-23 21:26 61.79096 -117.67958 36537 ft 489 kts 187°
2026-04-23 21:27 61.72327 -117.69237 36539 ft 489 kts 187°
2026-04-23 21:27 61.65552 -117.70511 36538 ft 489 kts 187°
2026-04-23 21:28 61.58778 -117.71780 36536 ft 489 kts 187°
2026-04-23 21:28 61.52003 -117.73043 36533 ft 489 kts 186°
2026-04-23 21:29 61.45246 -117.74297 36534 ft 487 kts 186°
2026-04-23 21:29 61.38485 -117.75546 36536 ft 489 kts 187°
2026-04-23 21:30 61.31692 -117.76797 36535 ft 491 kts 187°
2026-04-23 21:30 61.24892 -117.78043 36538 ft 491 kts 187°
2026-04-23 21:31 61.19238 -117.79074 36538 ft 491 kts 186°
2026-04-23 21:31 61.12447 -117.80309 36537 ft 489 kts 186°
2026-04-23 21:32 61.05680 -117.81533 36535 ft 488 kts 186°
2026-04-23 21:32 60.98920 -117.82751 36538 ft 488 kts 186°
2026-04-23 21:33 60.92152 -117.83966 36535 ft 488 kts 186°
2026-04-23 21:33 60.85393 -117.85174 36535 ft 488 kts 186°
2026-04-23 21:34 60.78635 -117.86377 36530 ft 487 kts 186°
2026-04-23 21:34 60.71898 -117.87570 36529 ft 486 kts 186°
2026-04-23 21:35 60.65158 -117.88759 36530 ft 486 kts 186°
2026-04-23 21:35 60.58423 -117.89942 36530 ft 486 kts 186°
2026-04-23 21:36 60.48320 -117.91708 36528 ft 486 kts 186°
2026-04-23 21:37 60.41606 -117.92875 36521 ft 483 kts 186°
2026-04-23 21:37 60.34912 -117.94034 36501 ft 483 kts 186°
2026-04-23 21:38 60.28183 -117.95195 36508 ft 487 kts 186°
2026-04-23 21:38 60.21429 -117.96355 36507 ft 487 kts 186°
2026-04-23 21:39 60.14672 -117.97511 36508 ft 487 kts 186°
2026-04-23 21:39 60.07926 -117.98660 36497 ft 485 kts 186°
2026-04-23 21:40 60.01207 -117.99799 36488 ft 485 kts 186°
2026-04-23 21:40 59.94495 -118.01135 36487 ft 484 kts 188°
2026-04-23 21:41 59.87811 -118.02846 36475 ft 484 kts 188°
2026-04-23 21:41 59.81125 -118.04560 36463 ft 485 kts 188°
2026-04-23 21:42 59.74416 -118.06209 36475 ft 486 kts 188°
2026-04-23 21:42 59.67700 -118.07821 36466 ft 486 kts 188°
2026-04-23 21:43 59.60983 -118.09422 36461 ft 486 kts 188°
2026-04-23 21:43 59.54261 -118.11020 36464 ft 486 kts 188°
2026-04-23 21:44 59.47545 -118.12612 36460 ft 486 kts 188°
2026-04-23 21:44 59.40884 -118.14186 36459 ft 484 kts 187°
2026-04-23 21:45 59.34153 -118.15769 36461 ft 484 kts 187°
2026-04-23 21:45 59.27504 -118.17326 36449 ft 487 kts 188°
2026-04-23 21:46 59.20763 -118.18900 36450 ft 489 kts 188°
2026-04-23 21:46 59.14007 -118.20470 36451 ft 489 kts 187°
2026-04-23 21:47 59.07263 -118.22031 36452 ft 487 kts 187°
2026-04-23 21:47 59.00537 -118.23582 36446 ft 487 kts 187°
2026-04-23 21:48 58.93805 -118.25129 36446 ft 487 kts 187°
2026-04-23 21:48 58.87078 -118.26668 36441 ft 487 kts 187°
2026-04-23 21:49 58.80351 -118.28201 36428 ft 487 kts 187°
2026-04-23 21:49 58.73595 -118.29734 36442 ft 489 kts 187°
2026-04-23 21:50 58.66837 -118.31262 36443 ft 489 kts 187°
2026-04-23 21:50 58.60079 -118.32785 36444 ft 489 kts 187°
2026-04-23 21:51 58.53317 -118.34301 36441 ft 489 kts 187°
2026-04-23 21:51 58.46559 -118.35811 36439 ft 489 kts 187°
2026-04-23 21:52 58.39841 -118.37307 36442 ft 489 kts 187°
2026-04-23 21:52 58.33037 -118.38816 36432 ft 489 kts 187°
2026-04-23 21:53 58.26297 -118.40305 36430 ft 493 kts 187°
2026-04-23 21:53 58.19423 -118.41818 36428 ft 494 kts 187°
2026-04-23 21:54 58.12585 -118.43317 36438 ft 494 kts 187°
2026-04-23 21:54 58.05766 -118.44806 36428 ft 493 kts 187°
2026-04-23 21:55 57.98953 -118.46287 36416 ft 493 kts 187°
2026-04-23 21:55 57.92186 -118.47754 36414 ft 493 kts 187°
2026-04-23 21:56 57.85379 -118.49223 36410 ft 493 kts 187°
2026-04-23 21:56 57.78555 -118.50692 36415 ft 496 kts 187°
2026-04-23 21:57 57.71699 -118.52161 36405 ft 496 kts 187°
2026-04-23 21:57 57.64842 -118.53624 36402 ft 496 kts 187°
2026-04-23 21:58 57.57982 -118.55082 36396 ft 496 kts 187°
2026-04-23 21:58 57.51127 -118.56534 36395 ft 496 kts 187°
2026-04-23 21:59 57.44270 -118.57981 36391 ft 495 kts 187°
2026-04-23 21:59 57.37434 -118.59418 36388 ft 494 kts 187°
2026-04-23 22:00 57.27152 -118.61571 36382 ft 498 kts 187°
2026-04-23 22:00 57.20260 -118.63006 36379 ft 499 kts 187°
2026-04-23 22:01 57.13358 -118.64437 36384 ft 499 kts 187°
2026-04-23 22:01 57.06477 -118.65859 36367 ft 497 kts 187°
2026-04-23 22:02 56.99647 -118.67265 36367 ft 497 kts 187°
2026-04-23 22:02 56.92773 -118.68676 36359 ft 497 kts 187°
2026-04-23 22:03 56.85898 -118.70081 36342 ft 497 kts 187°
2026-04-23 22:03 56.78987 -118.71490 36360 ft 501 kts 187°
2026-04-23 22:04 56.72061 -118.72895 36361 ft 501 kts 187°
2026-04-23 22:04 56.65134 -118.74294 36349 ft 501 kts 187°
2026-04-23 22:05 56.58201 -118.75690 36360 ft 501 kts 187°
2026-04-23 22:05 56.51273 -118.77080 36352 ft 501 kts 187°
2026-04-23 22:06 56.44352 -118.78464 36348 ft 499 kts 187°
2026-04-23 22:06 56.37456 -118.79837 36340 ft 499 kts 187°
2026-04-23 22:07 56.30514 -118.81216 36350 ft 503 kts 187°
2026-04-23 22:07 56.23545 -118.82594 36349 ft 504 kts 187°
2026-04-23 22:08 56.16576 -118.83967 36356 ft 503 kts 187°
2026-04-23 22:08 56.09625 -118.85331 36349 ft 502 kts 187°
2026-04-23 22:09 56.02689 -118.86687 36346 ft 501 kts 187°
2026-04-23 22:09 55.95748 -118.88040 36354 ft 501 kts 187°
2026-04-23 22:10 55.88811 -118.89387 36352 ft 502 kts 187°
2026-04-23 22:10 55.81876 -118.90729 36364 ft 501 kts 187°
2026-04-23 22:11 55.75000 -118.92055 36354 ft 500 kts 187°
2026-04-23 22:11 55.68075 -118.93385 36352 ft 500 kts 187°
2026-04-23 22:12 55.61156 -118.94710 36351 ft 500 kts 187°
2026-04-23 22:12 55.54232 -118.96031 36360 ft 500 kts 187°
2026-04-23 22:13 55.47327 -118.97343 36317 ft 498 kts 187°
2026-04-23 22:13 55.40406 -118.98654 36329 ft 502 kts 187°
2026-04-23 22:14 55.33446 -118.99968 36310 ft 503 kts 187°
2026-04-23 22:14 55.26481 -119.01278 36303 ft 503 kts 187°
2026-04-23 22:15 55.19516 -119.02583 36292 ft 503 kts 187°
2026-04-23 22:15 55.12578 -119.04155 36296 ft 502 kts 191°
2026-04-23 22:16 55.05722 -119.06513 36367 ft 502 kts 193°
2026-04-23 22:16 54.98868 -119.08929 36359 ft 504 kts 193°
2026-04-23 22:17 54.91956 -119.11234 36384 ft 507 kts 192°
2026-04-23 22:17 54.85024 -119.13465 36371 ft 506 kts 192°
2026-04-23 22:18 54.79263 -119.15300 36367 ft 506 kts 192°
2026-04-23 22:18 54.72339 -119.17503 36374 ft 506 kts 192°
2026-04-23 22:19 54.65411 -119.19705 36374 ft 506 kts 192°
2026-04-23 22:19 54.58487 -119.21901 36374 ft 506 kts 192°
2026-04-23 22:20 54.51530 -119.24100 36379 ft 509 kts 192°
2026-04-23 22:20 54.44556 -119.26294 36381 ft 510 kts 192°
2026-04-23 22:21 54.37582 -119.28481 36381 ft 509 kts 192°
2026-04-23 22:21 54.30607 -119.30661 36382 ft 509 kts 192°
2026-04-23 22:22 54.23642 -119.32831 36384 ft 508 kts 192°
2026-04-23 22:22 54.16702 -119.34985 36373 ft 509 kts 192°
2026-04-23 22:23 54.09714 -119.37148 36381 ft 511 kts 192°
2026-04-23 22:23 54.02706 -119.39308 36380 ft 512 kts 192°
2026-04-23 22:24 53.95700 -119.41461 36381 ft 511 kts 192°
2026-04-23 22:24 53.88719 -119.43599 36379 ft 509 kts 192°
2026-04-23 22:25 53.81756 -119.45723 36373 ft 508 kts 192°
2026-04-23 22:25 53.74783 -119.47840 36369 ft 511 kts 192°
2026-04-23 22:26 53.67808 -119.49839 36381 ft 513 kts 190°
2026-04-23 22:26 53.60728 -119.51373 36370 ft 512 kts 188°
2026-04-23 22:27 53.53668 -119.52834 36376 ft 511 kts 189°
2026-04-23 22:27 53.46625 -119.54356 36370 ft 510 kts 189°
2026-04-23 22:28 53.39586 -119.55914 36361 ft 510 kts 189°
2026-04-23 22:28 53.32533 -119.57482 36364 ft 512 kts 189°
2026-04-23 22:29 53.25458 -119.59048 36343 ft 513 kts 189°
2026-04-23 22:29 53.18381 -119.60607 36338 ft 513 kts 189°
2026-04-23 22:30 53.11296 -119.62166 36338 ft 513 kts 189°
2026-04-23 22:30 53.04213 -119.63713 36339 ft 514 kts 189°
2026-04-23 22:31 52.97129 -119.65252 36326 ft 513 kts 189°
2026-04-23 22:31 52.90050 -119.66789 36325 ft 513 kts 189°
2026-04-23 22:32 52.82977 -119.68317 36317 ft 513 kts 189°
2026-04-23 22:32 52.75901 -119.69843 36324 ft 513 kts 190°
2026-04-23 22:33 52.68814 -119.71362 36300 ft 514 kts 190°
2026-04-23 22:33 52.61720 -119.72884 36308 ft 514 kts 190°
2026-04-23 22:34 52.54625 -119.74406 36230 ft 514 kts 190°
2026-04-23 22:34 52.47517 -119.75919 36297 ft 517 kts 190°
2026-04-23 22:35 52.42265 -119.77032 36415 ft 510 kts 190°
2026-04-23 22:35 52.38738 -119.77778 36518 ft 513 kts 190°
2026-04-23 22:35 52.35182 -119.78530 36584 ft 517 kts 190°
2026-04-23 22:36 52.31603 -119.79287 36719 ft 520 kts 190°
2026-04-23 22:36 52.28001 -119.80050 36837 ft 524 kts 190°
2026-04-23 22:36 52.24377 -119.80815 36967 ft 527 kts 190°
2026-04-23 22:36 52.20724 -119.81583 37102 ft 531 kts 190°
2026-04-23 22:37 52.17057 -119.82350 37219 ft 534 kts 190°
2026-04-23 22:37 52.13357 -119.83131 37286 ft 537 kts 190°
2026-04-23 22:37 52.05905 -119.84692 37506 ft 543 kts 190°
2026-04-23 22:38 52.02195 -119.85823 37728 ft 539 kts 198°
2026-04-23 22:38 51.98679 -119.87783 38001 ft 531 kts 208°
2026-04-23 22:38 51.95457 -119.90609 38196 ft 524 kts 219°
2026-04-23 22:38 51.92633 -119.94258 38209 ft 514 kts 230°
2026-04-23 22:39 51.88552 -120.03389 38211 ft 488 kts 251°
2026-04-23 22:39 51.87357 -120.08367 38212 ft 464 kts 260°
2026-04-23 22:39 51.86530 -120.13304 38210 ft 446 kts 263°
2026-04-23 22:40 51.85878 -120.18104 38213 ft 429 kts 265°
2026-04-23 22:40 51.85311 -120.22752 38215 ft 414 kts 266°
2026-04-23 22:41 51.83697 -120.36269 38224 ft 407 kts 266°
2026-04-23 22:41 51.82560 -120.45180 38216 ft 408 kts 265°
2026-04-23 22:42 51.81372 -120.54168 38233 ft 409 kts 265°
2026-04-23 22:42 51.80179 -120.63086 38245 ft 408 kts 265°
2026-04-23 22:43 51.78967 -120.72105 38247 ft 408 kts 265°
2026-04-23 22:43 51.77767 -120.81004 38253 ft 408 kts 265°
2026-04-23 22:44 51.76552 -120.89956 38251 ft 408 kts 265°
2026-04-23 22:44 51.75330 -120.98905 38245 ft 408 kts 265°
2026-04-23 22:45 51.74099 -121.07850 38227 ft 408 kts 265°
2026-04-23 22:45 51.72864 -121.16777 38260 ft 407 kts 265°
2026-04-23 22:46 51.71625 -121.25692 38266 ft 407 kts 265°
2026-04-23 22:46 51.70381 -121.34599 38267 ft 407 kts 265°
2026-04-23 22:47 51.69127 -121.43507 38274 ft 408 kts 265°
2026-04-23 22:47 51.67866 -121.52411 38262 ft 408 kts 265°
2026-04-23 22:48 51.66599 -121.61303 38266 ft 406 kts 265°
2026-04-23 22:48 51.65329 -121.70168 38268 ft 406 kts 265°
2026-04-23 22:49 51.64054 -121.79029 38272 ft 406 kts 265°
2026-04-23 22:49 51.62770 -121.87891 38270 ft 407 kts 264°
2026-04-23 22:50 51.61487 -121.96688 38269 ft 406 kts 264°
2026-04-23 22:50 51.60182 -122.05590 38266 ft 406 kts 264°
2026-04-23 22:51 51.58891 -122.14361 38265 ft 406 kts 264°
2026-04-23 22:51 51.57582 -122.23186 38270 ft 406 kts 264°
2026-04-23 22:52 51.56266 -122.31998 38260 ft 406 kts 264°
2026-04-23 22:52 51.54942 -122.40816 38256 ft 406 kts 264°
2026-04-23 22:53 51.53615 -122.49625 38197 ft 406 kts 264°
2026-04-23 22:53 51.52284 -122.58405 38241 ft 403 kts 264°
2026-04-23 22:54 51.50951 -122.67147 38248 ft 403 kts 264°
2026-04-23 22:54 51.49614 -122.75874 38235 ft 403 kts 264°
2026-04-23 22:55 51.48271 -122.84597 38241 ft 403 kts 264°
2026-04-23 22:55 51.46919 -122.93322 38241 ft 403 kts 264°
2026-04-23 22:56 51.45561 -123.02043 38247 ft 403 kts 263°
2026-04-23 22:56 51.44197 -123.10746 38253 ft 403 kts 263°
2026-04-23 22:57 51.42827 -123.19448 38255 ft 403 kts 263°
2026-04-23 22:57 51.41451 -123.28144 38260 ft 403 kts 263°
2026-04-23 22:58 51.40068 -123.36837 38257 ft 403 kts 263°
2026-04-23 22:58 51.38678 -123.45531 38231 ft 403 kts 263°
2026-04-23 22:59 51.37282 -123.54215 38260 ft 403 kts 263°
2026-04-23 22:59 51.35880 -123.62889 38256 ft 403 kts 263°
2026-04-23 23:00 51.34472 -123.71569 38254 ft 403 kts 263°
2026-04-23 23:00 51.33054 -123.80240 38261 ft 403 kts 263°
2026-04-23 23:01 51.31633 -123.88907 38256 ft 404 kts 263°
2026-04-23 23:01 51.30203 -123.97581 38259 ft 403 kts 263°
2026-04-23 23:02 51.28770 -124.06210 38232 ft 401 kts 263°
2026-04-23 23:02 51.27344 -124.14765 38234 ft 401 kts 263°
2026-04-23 23:03 51.25903 -124.23366 38249 ft 401 kts 263°
2026-04-23 23:03 51.24454 -124.31967 38233 ft 401 kts 263°
2026-04-23 23:04 51.23007 -124.40554 38229 ft 401 kts 262°
2026-04-23 23:04 51.21547 -124.49152 38232 ft 401 kts 262°
2026-04-23 23:05 51.20080 -124.57747 38236 ft 402 kts 262°
2026-04-23 23:05 51.18604 -124.66328 38237 ft 401 kts 262°
2026-04-23 23:06 51.17122 -124.74898 38231 ft 401 kts 262°
2026-04-23 23:06 51.15888 -124.82021 38229 ft 401 kts 262°
2026-04-23 23:07 51.14399 -124.90576 38223 ft 401 kts 262°
2026-04-23 23:07 51.12900 -124.99128 38222 ft 401 kts 262°
2026-04-23 23:08 51.11395 -125.07678 38221 ft 401 kts 262°
2026-04-23 23:08 51.09888 -125.16234 38216 ft 401 kts 262°
2026-04-23 23:09 51.08375 -125.24770 38206 ft 401 kts 262°
2026-04-23 23:09 51.06853 -125.33307 38212 ft 402 kts 261°
2026-04-23 23:10 51.05323 -125.41871 38216 ft 403 kts 261°
2026-04-23 23:10 51.03781 -125.50412 38201 ft 402 kts 261°
2026-04-23 23:11 51.02233 -125.58949 38210 ft 402 kts 261°
2026-04-23 23:11 51.00685 -125.67483 38187 ft 402 kts 261°
2026-04-23 23:12 50.99136 -125.76016 38154 ft 402 kts 261°
2026-04-23 23:12 50.97586 -125.84465 38207 ft 401 kts 261°
2026-04-23 23:13 50.96026 -125.92978 38221 ft 404 kts 260°
2026-04-23 23:13 50.94438 -126.01511 38194 ft 403 kts 261°
2026-04-23 23:14 50.92842 -126.10062 38203 ft 403 kts 260°
2026-04-23 23:14 50.91243 -126.18582 38231 ft 403 kts 260°
2026-04-23 23:15 50.89649 -126.27101 38238 ft 403 kts 259°
2026-04-23 23:15 50.88049 -126.35603 38240 ft 403 kts 259°
2026-04-23 23:16 50.86443 -126.44097 38253 ft 403 kts 259°
2026-04-23 23:16 50.84827 -126.52594 38256 ft 403 kts 259°
2026-04-23 23:17 50.83205 -126.61081 38267 ft 403 kts 259°
2026-04-23 23:17 50.81578 -126.69561 38273 ft 403 kts 259°
2026-04-23 23:18 50.79953 -126.77996 38275 ft 404 kts 258°
2026-04-23 23:18 50.78309 -126.86481 38273 ft 404 kts 258°
2026-04-23 23:19 50.76658 -126.94965 38288 ft 404 kts 258°
2026-04-23 23:19 50.75002 -127.03443 38283 ft 404 kts 258°
2026-04-23 23:20 50.73339 -127.11918 38252 ft 404 kts 258°
2026-04-23 23:20 50.71657 -127.20383 38269 ft 406 kts 256°
2026-04-23 23:21 50.68985 -127.28312 38274 ft 417 kts 236°
2026-04-23 23:21 50.66986 -127.31657 38275 ft 423 kts 225°
2026-04-23 23:21 50.64568 -127.34357 38277 ft 429 kts 212°
2026-04-23 23:21 50.61822 -127.36250 38286 ft 434 kts 200°
2026-04-23 23:22 50.58852 -127.37214 38272 ft 438 kts 185°
2026-04-23 23:22 50.55802 -127.36997 38280 ft 441 kts 170°
2026-04-23 23:22 50.52861 -127.35672 38270 ft 442 kts 156°
2026-04-23 23:22 50.50158 -127.33391 38264 ft 440 kts 143°
2026-04-23 23:23 50.47974 -127.30098 38264 ft 433 kts 122°
2026-04-23 23:23 50.46575 -127.25987 38273 ft 424 kts 105°
2026-04-23 23:23 50.45707 -127.21583 38267 ft 423 kts 100°
2026-04-23 23:24 50.43504 -127.12953 38261 ft 434 kts 120°
2026-04-23 23:24 50.41645 -127.09213 38253 ft 437 kts 131°
2026-04-23 23:24 50.39403 -127.05966 38272 ft 441 kts 139°
2026-04-23 23:25 50.34374 -127.00414 38240 ft 444 kts 146°
2026-04-23 23:25 50.29142 -126.95252 38248 ft 445 kts 146°
2026-04-23 23:26 50.23970 -126.90075 38229 ft 444 kts 145°
2026-04-23 23:26 50.18797 -126.84777 38234 ft 445 kts 145°
2026-04-23 23:27 50.13637 -126.79453 38221 ft 445 kts 145°
2026-04-23 23:27 50.08493 -126.74163 38223 ft 442 kts 145°
2026-04-23 23:28 50.03361 -126.68905 38219 ft 441 kts 145°
2026-04-23 23:28 49.98225 -126.63669 38203 ft 441 kts 145°
2026-04-23 23:29 49.93090 -126.58445 38221 ft 441 kts 145°
2026-04-23 23:29 49.87961 -126.53222 38228 ft 441 kts 145°
2026-04-23 23:30 49.82820 -126.48002 38215 ft 441 kts 145°
2026-04-23 23:30 49.77674 -126.42802 38227 ft 442 kts 145°
2026-04-23 23:31 49.72526 -126.37611 38220 ft 442 kts 145°
2026-04-23 23:31 49.67369 -126.32426 38221 ft 442 kts 145°
2026-04-23 23:32 49.62212 -126.27253 38215 ft 442 kts 145°
2026-04-23 23:32 49.57046 -126.22085 38228 ft 442 kts 145°
2026-04-23 23:33 49.51883 -126.16932 38214 ft 442 kts 145°
2026-04-23 23:33 49.46744 -126.11816 38238 ft 443 kts 145°
2026-04-23 23:34 49.41572 -126.06680 38229 ft 443 kts 145°
2026-04-23 23:34 49.36391 -126.01548 38233 ft 444 kts 145°
2026-04-23 23:35 49.31195 -125.96414 38230 ft 445 kts 145°
2026-04-23 23:35 49.25988 -125.91284 38238 ft 445 kts 145°
2026-04-23 23:36 49.20781 -125.86167 38234 ft 445 kts 145°
2026-04-23 23:36 49.15573 -125.81059 38231 ft 444 kts 145°
2026-04-23 23:37 49.10846 -125.75059 38225 ft 440 kts 129°
2026-04-23 23:37 49.07441 -125.67450 38245 ft 431 kts 110°
2026-04-23 23:38 49.05693 -125.58857 38224 ft 420 kts 93°
2026-04-23 23:38 49.05639 -125.50087 38231 ft 409 kts 76°
2026-04-23 23:39 49.06883 -125.41705 38225 ft 407 kts 73°
2026-04-23 23:39 49.07800 -125.33153 38220 ft 410 kts 76°
2026-04-23 23:40 49.08570 -125.24527 38210 ft 411 kts 77°
2026-04-23 23:40 49.09276 -125.15910 38193 ft 413 kts 77°
2026-04-23 23:41 49.09977 -125.07184 38205 ft 415 kts 77°
2026-04-23 23:41 49.10675 -124.98446 38204 ft 415 kts 77°
2026-04-23 23:42 49.11370 -124.89710 38199 ft 415 kts 77°
2026-04-23 23:42 49.12059 -124.80971 38187 ft 415 kts 77°
2026-04-23 23:43 49.12739 -124.72217 38206 ft 415 kts 76°
2026-04-23 23:43 49.13414 -124.63463 38196 ft 415 kts 77°
2026-04-23 23:44 49.14084 -124.54704 38188 ft 415 kts 77°
2026-04-23 23:44 49.14748 -124.45947 38188 ft 416 kts 77°
2026-04-23 23:45 49.15405 -124.37181 38188 ft 416 kts 77°
2026-04-23 23:45 49.16055 -124.28397 38182 ft 416 kts 77°
2026-04-23 23:46 49.16699 -124.19606 38187 ft 416 kts 76°
2026-04-23 23:46 49.17334 -124.10865 38186 ft 417 kts 76°
2026-04-23 23:47 49.17966 -124.02057 38189 ft 417 kts 76°
2026-04-23 23:47 49.18591 -123.93246 38181 ft 417 kts 76°
2026-04-23 23:48 49.19210 -123.84431 38182 ft 417 kts 77°
2026-04-23 23:48 49.19822 -123.75614 38203 ft 418 kts 77°
2026-04-23 23:49 49.20740 -123.62251 38200 ft 423 kts 77°
2026-04-23 23:49 49.21343 -123.53294 38197 ft 423 kts 77°
2026-04-23 23:50 49.21938 -123.44341 38204 ft 423 kts 77°
2026-04-23 23:50 49.22529 -123.35373 38208 ft 424 kts 77°
2026-04-23 23:51 49.23115 -123.26384 38219 ft 425 kts 77°
2026-04-23 23:51 49.23691 -123.17401 38198 ft 423 kts 77°
2026-04-23 23:52 49.24260 -123.08436 38198 ft 423 kts 77°
2026-04-23 23:52 49.24823 -122.99469 38192 ft 424 kts 77°
2026-04-23 23:53 49.25380 -122.90495 38193 ft 424 kts 77°
2026-04-23 23:53 49.25929 -122.81517 38191 ft 424 kts 77°
2026-04-23 23:54 49.26472 -122.72526 38185 ft 425 kts 77°
2026-04-23 23:54 49.27009 -122.63516 38185 ft 425 kts 77°
2026-04-23 23:55 49.27535 -122.54550 38181 ft 426 kts 77°
2026-04-23 23:55 49.28060 -122.45518 38192 ft 426 kts 77°
2026-04-23 23:56 49.28577 -122.36486 38193 ft 426 kts 77°
2026-04-23 23:56 49.29084 -122.27463 38187 ft 425 kts 77°
2026-04-23 23:57 49.29587 -122.18446 38180 ft 425 kts 77°
2026-04-23 23:57 49.30082 -122.09421 38179 ft 426 kts 77°
2026-04-23 23:58 49.30491 -122.01894 38166 ft 427 kts 78°
2026-04-23 23:58 49.30973 -121.92845 38164 ft 425 kts 78°
2026-04-23 23:59 49.31448 -121.83807 38157 ft 425 kts 78°
2026-04-23 23:59 49.31917 -121.74745 38149 ft 429 kts 78°
2026-04-24 00:00 49.32384 -121.65625 38126 ft 429 kts 78°
2026-04-24 00:00 49.32840 -121.56486 38140 ft 430 kts 78°
2026-04-24 00:01 49.33294 -121.47332 38135 ft 431 kts 78°
2026-04-24 00:01 49.33743 -121.38174 38144 ft 431 kts 78°
2026-04-24 00:02 49.34179 -121.29018 38138 ft 430 kts 78°
2026-04-24 00:02 49.34617 -121.19828 38136 ft 433 kts 78°
2026-04-24 00:03 49.35042 -121.10607 38134 ft 434 kts 79°
2026-04-24 00:03 49.35455 -121.01371 38120 ft 434 kts 79°
2026-04-24 00:04 49.35861 -120.92133 38121 ft 434 kts 79°
2026-04-24 00:04 49.36269 -120.82901 38166 ft 434 kts 79°
2026-04-24 00:05 49.36669 -120.73643 38115 ft 435 kts 79°
2026-04-24 00:05 49.37063 -120.64372 38105 ft 436 kts 79°
2026-04-24 00:06 49.37403 -120.55075 38110 ft 439 kts 83°
2026-04-24 00:06 49.36654 -120.45657 38109 ft 452 kts 99°
2026-04-24 00:07 49.34075 -120.36764 38112 ft 464 kts 120°
2026-04-24 00:07 49.29692 -120.29431 38117 ft 472 kts 141°
2026-04-24 00:08 49.26956 -120.26659 38113 ft 473 kts 152°
2026-04-24 00:08 49.23956 -120.24598 38112 ft 472 kts 162°
2026-04-24 00:08 49.20788 -120.23311 38115 ft 470 kts 173°
2026-04-24 00:08 49.17546 -120.22820 38119 ft 467 kts 183°
2026-04-24 00:09 49.11223 -120.24165 38113 ft 453 kts 203°
2026-04-24 00:09 49.05610 -120.28137 38115 ft 442 kts 217°
2026-04-24 00:10 49.00379 -120.32913 38106 ft 441 kts 218°
2026-04-24 00:10 48.94788 -120.36979 38084 ft 452 kts 203°
2026-04-24 00:11 48.88509 -120.38548 38096 ft 463 kts 187°
2026-04-24 00:11 48.82068 -120.38774 38095 ft 463 kts 184°
2026-04-24 00:12 48.75637 -120.38806 38088 ft 462 kts 184°
2026-04-24 00:12 48.69215 -120.38877 38070 ft 461 kts 184°
2026-04-24 00:13 48.62758 -120.39000 38090 ft 461 kts 184°
2026-04-24 00:13 48.56375 -120.39140 38074 ft 463 kts 185°
2026-04-24 00:14 48.49919 -120.39294 38058 ft 464 kts 184°
2026-04-24 00:14 48.43471 -120.39431 38072 ft 464 kts 184°
2026-04-24 00:15 48.37009 -120.39565 38053 ft 464 kts 184°
2026-04-24 00:15 48.30539 -120.39694 38064 ft 465 kts 184°
2026-04-24 00:16 48.24047 -120.39827 38066 ft 467 kts 184°
2026-04-24 00:16 48.17561 -120.39965 38047 ft 466 kts 184°
2026-04-24 00:17 48.11088 -120.40097 38060 ft 464 kts 184°
2026-04-24 00:17 48.04658 -120.40235 38028 ft 460 kts 185°
2026-04-24 00:18 47.98242 -120.40380 38038 ft 461 kts 184°
2026-04-24 00:18 47.91823 -120.40506 38040 ft 461 kts 184°
2026-04-24 00:19 47.85406 -120.40636 38039 ft 461 kts 185°
2026-04-24 00:19 47.79002 -120.40764 38040 ft 460 kts 185°
2026-04-24 00:20 47.72601 -120.40896 38029 ft 460 kts 185°
2026-04-24 00:20 47.66199 -120.41030 38029 ft 460 kts 185°
2026-04-24 00:21 47.59841 -120.41164 38024 ft 460 kts 185°
2026-04-24 00:21 47.53451 -120.41294 38020 ft 459 kts 185°
2026-04-24 00:22 47.47066 -120.41426 38021 ft 459 kts 185°
2026-04-24 00:22 47.40687 -120.41552 38023 ft 459 kts 185°
2026-04-24 00:23 47.34299 -120.41677 38011 ft 458 kts 185°
2026-04-24 00:23 47.27928 -120.41809 38024 ft 457 kts 185°
2026-04-24 00:24 47.21567 -120.41939 38022 ft 457 kts 185°
2026-04-24 00:24 47.15211 -120.42069 38040 ft 457 kts 185°
2026-04-24 00:25 47.08848 -120.42197 38063 ft 457 kts 185°
2026-04-24 00:25 47.02491 -120.42325 38063 ft 457 kts 185°
2026-04-24 00:26 46.96136 -120.42451 38063 ft 457 kts 185°
2026-04-24 00:26 46.89775 -120.42581 38060 ft 458 kts 184°
2026-04-24 00:27 46.83412 -120.42707 38057 ft 457 kts 184°
2026-04-24 00:27 46.77090 -120.42832 38028 ft 457 kts 185°
2026-04-24 00:28 46.70731 -120.42957 38023 ft 457 kts 185°
2026-04-24 00:28 46.64371 -120.43083 38028 ft 456 kts 184°
2026-04-24 00:29 46.58036 -120.43206 38028 ft 454 kts 184°
2026-04-24 00:29 46.51721 -120.43334 38012 ft 454 kts 184°
2026-04-24 00:30 46.45407 -120.43460 38030 ft 453 kts 184°
2026-04-24 00:30 46.39102 -120.43580 38036 ft 452 kts 184°
2026-04-24 00:31 46.32818 -120.43701 38040 ft 451 kts 184°
2026-04-24 00:31 46.26540 -120.43823 38039 ft 451 kts 184°
2026-04-24 00:32 46.20265 -120.43945 38046 ft 451 kts 184°
2026-04-24 00:32 46.14005 -120.44066 38012 ft 448 kts 184°
2026-04-24 00:33 46.07798 -120.44188 38045 ft 444 kts 184°
2026-04-24 00:33 46.01632 -120.44307 38052 ft 443 kts 184°
2026-04-24 00:34 45.95511 -120.44424 38059 ft 443 kts 184°
2026-04-24 00:34 45.89348 -120.44544 38065 ft 443 kts 184°
2026-04-24 00:35 45.83186 -120.44663 38076 ft 443 kts 184°
2026-04-24 00:35 45.77019 -120.44783 38072 ft 443 kts 184°
2026-04-24 00:36 45.70868 -120.44901 38089 ft 441 kts 184°
2026-04-24 00:36 45.64740 -120.45016 38087 ft 440 kts 184°
2026-04-24 00:37 45.58612 -120.45132 38103 ft 440 kts 184°
2026-04-24 00:37 45.52488 -120.45248 38102 ft 440 kts 184°
2026-04-24 00:38 45.46353 -120.45365 38111 ft 441 kts 184°
2026-04-24 00:38 45.40214 -120.45481 38107 ft 442 kts 184°
2026-04-24 00:39 45.34076 -120.45603 38105 ft 440 kts 184°
2026-04-24 00:39 45.27957 -120.45714 38109 ft 439 kts 184°
2026-04-24 00:40 45.21841 -120.45827 38103 ft 440 kts 184°
2026-04-24 00:40 45.15726 -120.45942 38104 ft 439 kts 184°
2026-04-24 00:41 45.09610 -120.46056 38099 ft 440 kts 184°
2026-04-24 00:41 45.03490 -120.46171 38099 ft 439 kts 184°
2026-04-24 00:42 44.97389 -120.46294 38103 ft 437 kts 184°
2026-04-24 00:42 44.91315 -120.46404 38102 ft 436 kts 184°
2026-04-24 00:43 44.85247 -120.46512 38103 ft 436 kts 184°
2026-04-24 00:43 44.79180 -120.46622 38099 ft 435 kts 184°
2026-04-24 00:44 44.73164 -120.46733 38106 ft 435 kts 184°
2026-04-24 00:44 44.67115 -120.46845 38106 ft 435 kts 184°
2026-04-24 00:45 44.61060 -120.46957 38099 ft 434 kts 184°
2026-04-24 00:45 44.55036 -120.47069 38100 ft 432 kts 184°
2026-04-24 00:46 44.49996 -120.47161 38107 ft 433 kts 184°
2026-04-24 00:46 44.43979 -120.47269 38107 ft 433 kts 184°
2026-04-24 00:47 44.37961 -120.47378 38099 ft 432 kts 184°
2026-04-24 00:47 44.31952 -120.47488 38102 ft 431 kts 184°
2026-04-24 00:48 44.25948 -120.47599 38097 ft 431 kts 184°
2026-04-24 00:48 44.19962 -120.47708 38100 ft 430 kts 184°
2026-04-24 00:49 44.14026 -120.47814 38097 ft 429 kts 184°
2026-04-24 00:49 44.08053 -120.47921 38097 ft 429 kts 184°
2026-04-24 00:50 44.02083 -120.48030 38098 ft 429 kts 184°
2026-04-24 00:50 43.96114 -120.48137 38098 ft 429 kts 184°
2026-04-24 00:51 43.90141 -120.48244 38094 ft 429 kts 184°
2026-04-24 00:51 43.84166 -120.48351 38091 ft 429 kts 184°
2026-04-24 00:52 43.78190 -120.48458 38094 ft 430 kts 184°
2026-04-24 00:52 43.72210 -120.48565 38095 ft 430 kts 184°
2026-04-24 00:53 43.66217 -120.48672 38084 ft 431 kts 184°
2026-04-24 00:53 43.60221 -120.48778 38088 ft 431 kts 184°
2026-04-24 00:54 43.54221 -120.48884 38085 ft 431 kts 184°
2026-04-24 00:54 43.48215 -120.48991 38084 ft 432 kts 184°
2026-04-24 00:55 43.42197 -120.49097 38080 ft 433 kts 184°
2026-04-24 00:55 43.36176 -120.49203 38077 ft 433 kts 184°
2026-04-24 00:56 43.30197 -120.49308 38078 ft 433 kts 183°
2026-04-24 00:56 43.24172 -120.49414 38078 ft 433 kts 183°
2026-04-24 00:57 43.18148 -120.49522 38081 ft 433 kts 183°
2026-04-24 00:58 43.09115 -120.49678 38081 ft 432 kts 183°
2026-04-24 00:58 43.03108 -120.49783 38083 ft 432 kts 183°
2026-04-24 00:59 42.97097 -120.49888 38087 ft 432 kts 183°
2026-04-24 00:59 42.91091 -120.49992 38091 ft 432 kts 184°
2026-04-24 01:00 42.85090 -120.50097 38093 ft 430 kts 183°
2026-04-24 01:00 42.79120 -120.50199 38095 ft 428 kts 184°
2026-04-24 01:01 42.73160 -120.50302 38111 ft 428 kts 183°
2026-04-24 01:01 42.67206 -120.50404 38096 ft 427 kts 184°
2026-04-24 01:02 42.61265 -120.50507 38105 ft 427 kts 184°
2026-04-24 01:02 42.55328 -120.50609 38098 ft 427 kts 184°
2026-04-24 01:03 42.49393 -120.50639 38110 ft 427 kts 180°
2026-04-24 01:03 42.43458 -120.50137 38123 ft 427 kts 179°
2026-04-24 01:04 42.37534 -120.49393 38095 ft 430 kts 167°
2026-04-24 01:04 42.34769 -120.47835 38130 ft 433 kts 148°
2026-04-24 01:04 42.32501 -120.45172 38122 ft 434 kts 129°
2026-04-24 01:04 42.30971 -120.41675 38120 ft 434 kts 109°
2026-04-24 01:05 42.30342 -120.37719 38114 ft 431 kts 89°
2026-04-24 01:05 42.30676 -120.33733 38133 ft 426 kts 70°
2026-04-24 01:05 42.31782 -120.30051 38109 ft 422 kts 59°
2026-04-24 01:06 42.34666 -120.23189 38126 ft 423 kts 55°
2026-04-24 01:06 42.37746 -120.16405 38107 ft 423 kts 54°
2026-04-24 01:07 42.40324 -120.09239 38121 ft 430 kts 72°
2026-04-24 01:07 42.40800 -120.05234 38123 ft 433 kts 85°
2026-04-24 01:07 42.40722 -120.01152 38104 ft 436 kts 94°
2026-04-24 01:08 42.39590 -119.93078 38115 ft 439 kts 102°
2026-04-24 01:08 42.38040 -119.85095 38104 ft 439 kts 103°
2026-04-24 01:09 42.36515 -119.77103 38097 ft 438 kts 102°
2026-04-24 01:09 42.35063 -119.69102 38101 ft 438 kts 102°
2026-04-24 01:10 42.33633 -119.61082 38097 ft 440 kts 102°
2026-04-24 01:10 42.32197 -119.53040 38096 ft 441 kts 102°
2026-04-24 01:11 42.30750 -119.44991 38093 ft 441 kts 102°
2026-04-24 01:11 42.29295 -119.36946 38088 ft 441 kts 102°
2026-04-24 01:12 42.27835 -119.28907 38083 ft 441 kts 102°
2026-04-24 01:12 42.26370 -119.20872 38078 ft 441 kts 102°
2026-04-24 01:13 42.24894 -119.12811 38078 ft 443 kts 102°
2026-04-24 01:13 42.23409 -119.04738 38073 ft 443 kts 103°
2026-04-24 01:14 42.21917 -118.96666 38072 ft 443 kts 103°
2026-04-24 01:14 42.20421 -118.88605 38064 ft 443 kts 102°
2026-04-24 01:15 42.18930 -118.80602 38052 ft 443 kts 103°
2026-04-24 01:15 42.17420 -118.72528 38057 ft 445 kts 103°
2026-04-24 01:16 42.15890 -118.64387 38062 ft 445 kts 103°
2026-04-24 01:16 42.14374 -118.56356 38058 ft 445 kts 103°
2026-04-24 01:17 42.12841 -118.48267 38057 ft 445 kts 103°
2026-04-24 01:17 42.11305 -118.40195 38055 ft 445 kts 103°
2026-04-24 01:18 42.09762 -118.32114 38052 ft 446 kts 103°
2026-04-24 01:18 42.08210 -118.24025 38053 ft 446 kts 103°
2026-04-24 01:19 42.06650 -118.15932 38051 ft 447 kts 103°
2026-04-24 01:19 42.05086 -118.07846 38045 ft 447 kts 103°
2026-04-24 01:20 42.03515 -117.99760 38045 ft 447 kts 103°
2026-04-24 01:20 42.01938 -117.91675 38045 ft 447 kts 104°
2026-04-24 01:21 42.00353 -117.83585 38035 ft 448 kts 104°
2026-04-24 01:21 41.98761 -117.75488 38034 ft 448 kts 104°
2026-04-24 01:22 41.97163 -117.67397 38037 ft 448 kts 104°
2026-04-24 01:22 41.95558 -117.59304 38038 ft 448 kts 104°
2026-04-24 01:23 41.93949 -117.51214 38037 ft 448 kts 104°
2026-04-24 01:23 41.92332 -117.43123 38050 ft 449 kts 104°
2026-04-24 01:24 41.90704 -117.35009 38039 ft 451 kts 104°
2026-04-24 01:24 41.88610 -117.27093 38037 ft 451 kts 119°
2026-04-24 01:24 41.86871 -117.23614 38032 ft 449 kts 132°
2026-04-24 01:25 41.84660 -117.20696 38030 ft 445 kts 144°
2026-04-24 01:25 41.82068 -117.18479 38028 ft 440 kts 158°
2026-04-24 01:25 41.79233 -117.17053 38030 ft 433 kts 171°
2026-04-24 01:25 41.76286 -117.16442 38033 ft 426 kts 182°
2026-04-24 01:26 41.73358 -117.16628 38028 ft 418 kts 194°
2026-04-24 01:26 41.70559 -117.17557 38032 ft 411 kts 205°
2026-04-24 01:26 41.67991 -117.19155 38033 ft 404 kts 216°
2026-04-24 01:27 41.63857 -117.23944 38034 ft 393 kts 236°
2026-04-24 01:27 41.61016 -117.30092 38029 ft 388 kts 246°
2026-04-24 01:28 41.58562 -117.36502 38035 ft 387 kts 247°
2026-04-24 01:28 41.55824 -117.42717 38034 ft 392 kts 236°
2026-04-24 01:29 41.51806 -117.47733 38014 ft 401 kts 220°
2026-04-24 01:29 41.47136 -117.51862 38044 ft 404 kts 217°
2026-04-24 01:30 41.42346 -117.55783 38032 ft 404 kts 217°
2026-04-24 01:30 41.37567 -117.59716 38023 ft 404 kts 217°
2026-04-24 01:31 41.32810 -117.63687 38031 ft 404 kts 217°
2026-04-24 01:31 41.28059 -117.67671 38038 ft 404 kts 217°
2026-04-24 01:32 41.23338 -117.71626 38039 ft 404 kts 217°
2026-04-24 01:32 41.18589 -117.75595 38030 ft 404 kts 218°
2026-04-24 01:33 41.13832 -117.79563 38052 ft 404 kts 217°
2026-04-24 01:33 41.09070 -117.83525 38049 ft 403 kts 217°
2026-04-24 01:34 41.04331 -117.87459 38048 ft 401 kts 217°
2026-04-24 01:34 40.99602 -117.91382 38049 ft 401 kts 217°
2026-04-24 01:35 40.94871 -117.95299 38054 ft 401 kts 217°
2026-04-24 01:35 40.90940 -117.98550 38050 ft 401 kts 217°
2026-04-24 01:36 40.86204 -118.02458 38047 ft 401 kts 217°
2026-04-24 01:36 40.81480 -118.06350 38044 ft 400 kts 218°
2026-04-24 01:37 40.76766 -118.10227 38024 ft 399 kts 218°
2026-04-24 01:37 40.72059 -118.14092 38024 ft 398 kts 218°
2026-04-24 01:38 40.67353 -118.17951 38031 ft 399 kts 218°
2026-04-24 01:38 40.62644 -118.21806 38028 ft 398 kts 218°
2026-04-24 01:39 40.57939 -118.25649 38029 ft 397 kts 218°
2026-04-24 01:39 40.53244 -118.29479 38028 ft 397 kts 218°
2026-04-24 01:40 40.48552 -118.33300 38035 ft 397 kts 218°
2026-04-24 01:40 40.43858 -118.37117 38010 ft 397 kts 218°
2026-04-24 01:41 40.39162 -118.40927 38033 ft 397 kts 218°
2026-04-24 01:41 40.34468 -118.44730 38043 ft 396 kts 218°
2026-04-24 01:42 40.29784 -118.48518 38022 ft 395 kts 218°
2026-04-24 01:42 40.25105 -118.52296 38037 ft 395 kts 218°
2026-04-24 01:43 40.20429 -118.56068 38032 ft 395 kts 218°
2026-04-24 01:43 40.15781 -118.59810 38030 ft 395 kts 218°
2026-04-24 01:44 40.11105 -118.63568 38017 ft 395 kts 218°
2026-04-24 01:44 40.06431 -118.67317 38047 ft 394 kts 218°
2026-04-24 01:45 40.01761 -118.71057 38048 ft 393 kts 218°
2026-04-24 01:45 39.97095 -118.74789 38045 ft 394 kts 218°
2026-04-24 01:46 39.92428 -118.78515 38040 ft 394 kts 218°
2026-04-24 01:46 39.87756 -118.82240 38027 ft 394 kts 218°
2026-04-24 01:47 39.83083 -118.85959 38020 ft 393 kts 218°
2026-04-24 01:47 39.78417 -118.89665 38008 ft 393 kts 218°
2026-04-24 01:48 39.73752 -118.93367 38011 ft 393 kts 218°
2026-04-24 01:48 39.69088 -118.97061 37998 ft 393 kts 218°
2026-04-24 01:49 39.64427 -119.00746 38004 ft 392 kts 218°
2026-04-24 01:49 39.59796 -119.04403 37998 ft 392 kts 218°
2026-04-24 01:50 39.55141 -119.08072 37993 ft 391 kts 218°
2026-04-24 01:50 39.50491 -119.11731 37988 ft 391 kts 218°
2026-04-24 01:51 39.45842 -119.15384 37993 ft 391 kts 218°
2026-04-24 01:51 39.41189 -119.19035 37990 ft 391 kts 218°
2026-04-24 01:52 39.36535 -119.22681 37990 ft 391 kts 218°
2026-04-24 01:52 39.31883 -119.26319 37986 ft 390 kts 218°
2026-04-24 01:53 39.27245 -119.29941 38003 ft 389 kts 218°
2026-04-24 01:53 39.22611 -119.33554 38009 ft 389 kts 218°
2026-04-24 01:54 39.17972 -119.37165 38014 ft 389 kts 218°
2026-04-24 01:54 39.13330 -119.40769 38033 ft 390 kts 218°
2026-04-24 01:55 39.08693 -119.44365 38023 ft 389 kts 218°
2026-04-24 01:55 39.04060 -119.47959 38027 ft 388 kts 217°
2026-04-24 01:56 38.99440 -119.51535 38043 ft 388 kts 218°
2026-04-24 01:56 38.94813 -119.55107 38035 ft 388 kts 217°
2026-04-24 01:57 38.90177 -119.58682 38046 ft 389 kts 217°
2026-04-24 01:57 38.85542 -119.62252 38039 ft 388 kts 217°
2026-04-24 01:58 38.80903 -119.65815 38034 ft 388 kts 217°
2026-04-24 01:58 38.76263 -119.69373 38046 ft 389 kts 217°
2026-04-24 01:59 38.71623 -119.72928 38072 ft 389 kts 217°
2026-04-24 01:59 38.66983 -119.76479 38033 ft 389 kts 217°
2026-04-24 02:00 38.62338 -119.80033 38058 ft 389 kts 217°
2026-04-24 02:00 38.57688 -119.83585 38050 ft 390 kts 217°
2026-04-24 02:01 38.53034 -119.87130 38065 ft 389 kts 217°
2026-04-24 02:01 38.48386 -119.90660 38062 ft 389 kts 217°
2026-04-24 02:02 38.43744 -119.94187 38062 ft 388 kts 217°
2026-04-24 02:02 38.39102 -119.97709 38073 ft 388 kts 217°
2026-04-24 02:03 38.32166 -120.02959 38068 ft 388 kts 217°
2026-04-24 02:03 38.27417 -120.06264 38070 ft 393 kts 210°
2026-04-24 02:04 38.22091 -120.08218 38072 ft 407 kts 195°
2026-04-24 02:04 38.16353 -120.08176 38064 ft 421 kts 178°
2026-04-24 02:05 38.10560 -120.06897 38050 ft 423 kts 177°
2026-04-24 02:05 38.04770 -120.05589 38065 ft 422 kts 177°
2026-04-24 02:06 37.98978 -120.04308 38062 ft 422 kts 177°
2026-04-24 02:06 37.93187 -120.03035 38061 ft 422 kts 177°
2026-04-24 02:07 37.87404 -120.01770 38055 ft 421 kts 178°
2026-04-24 02:07 37.81638 -120.00512 38058 ft 421 kts 178°
2026-04-24 02:08 37.75870 -119.99256 38061 ft 421 kts 178°
2026-04-24 02:08 37.70140 -119.98010 38048 ft 420 kts 178°
2026-04-24 02:09 37.64384 -119.96759 38055 ft 419 kts 178°
2026-04-24 02:09 37.58637 -119.95516 38055 ft 419 kts 178°
2026-04-24 02:10 37.52890 -119.94270 38034 ft 419 kts 178°
2026-04-24 02:10 37.47150 -119.93028 38053 ft 418 kts 178°
2026-04-24 02:11 37.41423 -119.91792 38053 ft 418 kts 178°
2026-04-24 02:11 37.35694 -119.90558 38050 ft 418 kts 178°
2026-04-24 02:12 37.29968 -119.89326 38047 ft 417 kts 178°
2026-04-24 02:12 37.24258 -119.88099 38042 ft 416 kts 179°
2026-04-24 02:13 37.18555 -119.86877 38043 ft 416 kts 179°
2026-04-24 02:13 37.12852 -119.85655 38026 ft 416 kts 179°
2026-04-24 02:14 37.07161 -119.84437 38035 ft 414 kts 179°
2026-04-24 02:14 37.01485 -119.83226 38031 ft 414 kts 179°
2026-04-24 02:15 36.95808 -119.82016 38030 ft 414 kts 179°
2026-04-24 02:15 36.90122 -119.80806 38026 ft 414 kts 179°
2026-04-24 02:16 36.84450 -119.79600 38026 ft 413 kts 179°
2026-04-24 02:16 36.78784 -119.78398 38026 ft 413 kts 179°
2026-04-24 02:17 36.73157 -119.77206 38036 ft 413 kts 179°
2026-04-24 02:17 36.67490 -119.76007 38036 ft 413 kts 179°
2026-04-24 02:18 36.61788 -119.74802 38035 ft 413 kts 179°
2026-04-24 02:18 36.56121 -119.73606 38028 ft 413 kts 179°
2026-04-24 02:19 36.50494 -119.72421 38028 ft 413 kts 179°
2026-04-24 02:19 36.44841 -119.71231 38028 ft 412 kts 179°
2026-04-24 02:20 36.39190 -119.70045 38028 ft 412 kts 179°
2026-04-24 02:20 36.33539 -119.68860 38017 ft 412 kts 179°
2026-04-24 02:21 36.27893 -119.67677 38027 ft 411 kts 179°
2026-04-24 02:21 36.22252 -119.66498 38028 ft 411 kts 179°
2026-04-24 02:22 36.16610 -119.65320 38027 ft 411 kts 179°
2026-04-24 02:22 36.10970 -119.64144 38015 ft 411 kts 179°
2026-04-24 02:23 36.05328 -119.62970 38024 ft 411 kts 179°
2026-04-24 02:23 35.99704 -119.62105 38023 ft 401 kts 188°
2026-04-24 02:24 35.95181 -119.62649 38020 ft 387 kts 201°
2026-04-24 02:24 35.90056 -119.64472 38020 ft 382 kts 205°
2026-04-24 02:25 35.84968 -119.66409 38022 ft 383 kts 205°
2026-04-24 02:25 35.79873 -119.68329 38018 ft 383 kts 205°
2026-04-24 02:26 35.74775 -119.70242 38017 ft 383 kts 205°
2026-04-24 02:26 35.69676 -119.72150 38016 ft 383 kts 205°
2026-04-24 02:27 35.64491 -119.73812 38012 ft 388 kts 200°
2026-04-24 02:27 35.59189 -119.75101 38018 ft 388 kts 199°
2026-04-24 02:28 35.53853 -119.76394 38024 ft 396 kts 199°
2026-04-24 02:28 35.48987 -119.77578 37937 ft 410 kts 199°
2026-04-24 02:29 35.46147 -119.78270 37731 ft 422 kts 199°
2026-04-24 02:29 35.43222 -119.78981 37533 ft 434 kts 199°
2026-04-24 02:29 35.40217 -119.79709 37357 ft 446 kts 198°
2026-04-24 02:29 35.37139 -119.80444 37128 ft 454 kts 197°
2026-04-24 02:30 35.33983 -119.80908 36473 ft 460 kts 190°
2026-04-24 02:30 35.30754 -119.80761 35786 ft 470 kts 180°
2026-04-24 02:30 35.27522 -119.79932 35055 ft 481 kts 169°
2026-04-24 02:30 35.24377 -119.78393 34283 ft 493 kts 159°
2026-04-24 02:31 35.21436 -119.76132 33393 ft 505 kts 147°
2026-04-24 02:31 35.18813 -119.73338 32764 ft 505 kts 143°
2026-04-24 02:31 35.16092 -119.70571 32132 ft 500 kts 146°
2026-04-24 02:31 35.13396 -119.67999 31517 ft 497 kts 147°
2026-04-24 02:32 35.10663 -119.65432 30889 ft 495 kts 147°
2026-04-24 02:32 35.07937 -119.62885 30262 ft 493 kts 147°
2026-04-24 02:32 35.05215 -119.60348 29569 ft 491 kts 147°
2026-04-24 02:32 35.02509 -119.57830 28922 ft 487 kts 147°
2026-04-24 02:33 34.99830 -119.55341 28316 ft 483 kts 147°
2026-04-24 02:33 34.97163 -119.52873 27723 ft 479 kts 147°
2026-04-24 02:33 34.94519 -119.50424 27098 ft 476 kts 147°
2026-04-24 02:33 34.91891 -119.47992 26514 ft 473 kts 147°
2026-04-24 02:34 34.89277 -119.45598 25976 ft 468 kts 148°
2026-04-24 02:34 34.86663 -119.43265 25436 ft 464 kts 148°
2026-04-24 02:34 34.84065 -119.40953 24884 ft 460 kts 148°
2026-04-24 02:34 34.81508 -119.38675 24571 ft 450 kts 148°
2026-04-24 02:35 34.79020 -119.36454 24437 ft 436 kts 148°
2026-04-24 02:35 34.76598 -119.34291 24074 ft 429 kts 148°
2026-04-24 02:35 34.74194 -119.32151 23561 ft 427 kts 148°
2026-04-24 02:35 34.71791 -119.30049 22985 ft 424 kts 149°
2026-04-24 02:36 34.69401 -119.27967 22432 ft 421 kts 148°
2026-04-24 02:36 34.67034 -119.25905 21904 ft 417 kts 148°
2026-04-24 02:36 34.64688 -119.23861 21419 ft 413 kts 148°
2026-04-24 02:36 34.62360 -119.21853 20928 ft 408 kts 149°
2026-04-24 02:37 34.60058 -119.19866 20475 ft 404 kts 148°
2026-04-24 02:37 34.57778 -119.17894 19998 ft 400 kts 149°
2026-04-24 02:37 34.55517 -119.15953 19524 ft 396 kts 149°
2026-04-24 02:37 34.53290 -119.14004 19063 ft 394 kts 148°
2026-04-24 02:38 34.51088 -119.12043 18595 ft 391 kts 147°
2026-04-24 02:38 34.48897 -119.10093 18108 ft 389 kts 148°
2026-04-24 02:38 34.46725 -119.08173 17624 ft 385 kts 148°
2026-04-24 02:38 34.44574 -119.06268 17166 ft 381 kts 148°
2026-04-24 02:39 34.42441 -119.04395 16732 ft 378 kts 148°
2026-04-24 02:39 34.40316 -119.02541 16272 ft 374 kts 148°
2026-04-24 02:39 34.38207 -119.00708 15839 ft 372 kts 148°
2026-04-24 02:39 34.36115 -118.98906 15389 ft 368 kts 148°
2026-04-24 02:40 34.34031 -118.97111 14956 ft 366 kts 148°
2026-04-24 02:40 34.31984 -118.95293 14515 ft 364 kts 146°
2026-04-24 02:40 34.29973 -118.93456 14076 ft 360 kts 146°
2026-04-24 02:40 34.27979 -118.91638 13633 ft 358 kts 146°
2026-04-24 02:41 34.25996 -118.89834 13241 ft 352 kts 146°
2026-04-24 02:41 34.24080 -118.88086 13089 ft 339 kts 146°
2026-04-24 02:41 34.22248 -118.86394 12950 ft 325 kts 146°
2026-04-24 02:41 34.20476 -118.84757 12709 ft 317 kts 146°
2026-04-24 02:42 34.18731 -118.83152 12376 ft 314 kts 146°
2026-04-24 02:42 34.17003 -118.81566 12063 ft 310 kts 145°
2026-04-24 02:42 34.15307 -118.79966 11750 ft 310 kts 141°
2026-04-24 02:42 34.13721 -118.78233 11468 ft 312 kts 139°
2026-04-24 02:43 34.12136 -118.76448 11154 ft 312 kts 139°
2026-04-24 02:43 34.10547 -118.74673 10862 ft 311 kts 140°
2026-04-24 02:43 34.08954 -118.72916 10557 ft 309 kts 140°
2026-04-24 02:43 34.07368 -118.71178 10286 ft 308 kts 140°
2026-04-24 02:44 34.05782 -118.69453 10044 ft 305 kts 140°
2026-04-24 02:44 34.04243 -118.67756 9853 ft 296 kts 137°
2026-04-24 02:44 34.03078 -118.65756 9587 ft 292 kts 113°
2026-04-24 02:44 34.02611 -118.63397 9231 ft 289 kts 97°
2026-04-24 02:45 34.02389 -118.61009 8968 ft 282 kts 96°
2026-04-24 02:45 34.02194 -118.58703 8798 ft 271 kts 96°
2026-04-24 02:45 34.02000 -118.56485 8644 ft 261 kts 96°
2026-04-24 02:45 34.01806 -118.54348 8465 ft 253 kts 96°
2026-04-24 02:46 34.01614 -118.52265 8203 ft 249 kts 96°
2026-04-24 02:46 34.01418 -118.50195 7895 ft 247 kts 99°
2026-04-24 02:46 34.01199 -118.48151 7582 ft 245 kts 98°
2026-04-24 02:46 34.01035 -118.46123 7284 ft 242 kts 91°
2026-04-24 02:47 34.01208 -118.44125 6976 ft 239 kts 80°
2026-04-24 02:47 34.01543 -118.42166 6682 ft 237 kts 77°
2026-04-24 02:47 34.01900 -118.40241 6416 ft 234 kts 77°
2026-04-24 02:47 34.02251 -118.38334 6114 ft 233 kts 77°
2026-04-24 02:48 34.02598 -118.36424 5757 ft 234 kts 77°
2026-04-24 02:48 34.02920 -118.34505 5431 ft 233 kts 81°
2026-04-24 02:48 34.03121 -118.32568 5116 ft 233 kts 83°
2026-04-24 02:48 34.03294 -118.30629 4792 ft 233 kts 83°
2026-04-24 02:49 34.03477 -118.28694 4480 ft 231 kts 82°
2026-04-24 02:49 34.03682 -118.26776 4196 ft 229 kts 82°
2026-04-24 02:49 34.03891 -118.24892 3747 ft 226 kts 82°
2026-04-24 02:49 34.04013 -118.23013 3369 ft 229 kts 95°
2026-04-24 02:50 34.03457 -118.21244 2971 ft 231 kts 128°
2026-04-24 02:50 34.02205 -118.20087 2648 ft 226 kts 160°
2026-04-24 02:50 34.00704 -118.19585 2589 ft 223 kts 171°
2026-04-24 02:50 33.99176 -118.19644 2473 ft 222 kts 199°
2026-04-24 02:51 33.97911 -118.20636 2282 ft 216 kts 231°
2026-04-24 02:51 33.97127 -118.22155 2116 ft 212 kts 246°
2026-04-24 02:51 33.96806 -118.23867 2008 ft 210 kts 266°
2026-04-24 02:51 33.96711 -118.25631 1991 ft 210 kts 265°
2026-04-24 02:52 33.96547 -118.27373 1996 ft 209 kts 262°
2026-04-24 02:52 33.96350 -118.29112 1911 ft 209 kts 263°
2026-04-24 02:52 33.96176 -118.30841 1675 ft 207 kts 263°
2026-04-24 02:52 33.96007 -118.32508 1377 ft 192 kts 263°
2026-04-24 02:53 33.95848 -118.34022 1141 ft 172 kts 263°
2026-04-24 02:53 33.95708 -118.35389 934 ft 157 kts 262°
2026-04-24 02:53 33.95577 -118.36643 699 ft 145 kts 263°
2026-04-24 02:53 33.95461 -118.37791 519 ft 132 kts 263°
2026-04-24 02:54 33.95354 -118.38858 335 ft 125 kts 261°
2026-04-24 02:54 33.95244 -118.39886 175 ft 124 kts 261°
2026-04-24 02:54 33.95140 -118.40888 98 ft 112 kts 263°
2026-04-24 02:54 33.95074 -118.41533 101 ft 38 kts 263°
2026-04-24 02:55 33.95041 -118.41854 101 ft 39 kts 263°
2026-04-24 02:55 33.94991 -118.42100 101 ft 24 kts 244°
2026-04-24 02:55 33.94896 -118.42242 104 ft 21 kts 221°
2026-04-24 02:55 33.94766 -118.42278 103 ft 20 kts 176°
2026-04-24 02:56 33.94693 -118.42216 104 ft 14 kts 94°
2026-04-24 02:56 33.94698 -118.42093 100 ft 13 kts 84°
2026-04-24 02:56 33.94706 -118.42010 100 ft 9 kts 83°
2026-04-24 02:56 33.94715 -118.41917 101 ft 13 kts 83°
2026-04-24 02:57 33.94727 -118.41802 102 ft 13 kts 83°
2026-04-24 02:57 33.94738 -118.41687 99 ft 13 kts 83°
2026-04-24 02:57 33.94750 -118.41563 101 ft 16 kts 83°
2026-04-24 02:57 33.94771 -118.41419 101 ft 17 kts 75°
2026-04-24 02:58 33.94774 -118.41309 103 ft 11 kts 133°
2026-04-24 02:58 33.94691 -118.41284 101 ft 14 kts 173°
2026-04-24 02:58 33.94583 -118.41268 100 ft 17 kts 174°
2026-04-24 02:58 33.94456 -118.41249 100 ft 20 kts 173°
2026-04-24 02:59 33.94330 -118.41230 102 ft 11 kts 172°
2026-04-24 02:59 33.94279 -118.41221 102 ft 2 kts 172°
2026-04-24 02:59 33.94268 -118.41218 100 ft 3 kts 160°
2026-04-24 02:59 33.94261 -118.41201 101 ft 6 kts 111°
2026-04-24 03:00 33.94259 -118.41158 102 ft 0 kts 87°
2026-04-24 03:01 33.94260 -118.41140 100 ft 3 kts 85°
2026-04-24 03:01 33.94262 -118.41112 101 ft 0 kts 84°
2026-04-24 03:01 33.94262 -118.41111 101 ft 0 kts 84°